GFSFLT1_500_spd_000.txt.gz
Wind_Speed
25 25 25 25 30 35 36 39 42 43 44 42 41 43 47 49 51 53 53 53 54 55 57 59 60 59 58 58 57 57 57 57
27 28 29 32 34 34 36 39 39 41 44 46 46 48 49 49 51 52 54 57 58 58 57 57 57 58 58 57 58 59 59 60
27 30 30 31 31 32 37 40 43 47 48 48 50 52 52 52 53 52 54 55 56 58 58 58 58 60 62 61 58 55 55 55
30 30 29 33 34 37 41 44 46 53 53 54 55 54 54 55 55 55 55 54 56 57 59 60 61 62 61 62 62 62 61 59
32 30 33 31 36 41 42 44 51 53 55 56 55 55 54 55 55 56 55 57 58 60 61 63 64 65 65 66 65 67 67 67
31 33 35 38 43 45 47 50 53 53 54 55 55 57 58 58 57 59 61 62 64 66 67 68 68 68 66 66 66 66 69 70
36 38 40 43 45 46 50 51 50 53 54 56 58 58 59 60 62 63 64 66 67 69 71 73 73 74 74 75 75 74 73 67
38 39 43 45 47 48 51 52 53 54 57 59 59 61 65 68 70 71 72 72 71 72 76 79 79 79 79 79 77 74 74 71
42 44 46 47 49 51 53 54 54 59 60 62 63 65 68 72 74 73 74 77 80 79 76 78 78 79 80 80 78 75 70 68
46 46 47 49 52 53 57 60 58 62 66 67 66 69 71 76 78 80 82 84 84 86 84 81 84 83 82 78 70 65 64 63
44 45 46 50 53 55 57 59 62 65 69 74 76 79 83 83 85 87 88 89 89 88 87 85 82 82 76 67 63 61 57 51
43 45 48 54 53 58 62 64 67 68 71 73 74 76 81 85 87 89 91 90 88 88 84 79 75 66 60 56 53 50 51 52
45 50 54 58 62 65 67 68 70 72 73 74 77 82 87 90 94 94 93 90 87 83 74 66 55 53 51 49 49 49 51 51
52 56 60 64 66 67 69 70 71 74 78 83 84 85 87 90 95 97 93 87 81 72 61 45 44 44 47 48 48 49 50 51
61 60 63 66 68 69 70 72 75 80 84 83 84 84 84 92 98 96 87 76 66 50 40 41 41 42 45 47 45 43 43 44
61 63 66 66 69 70 72 76 80 81 79 81 84 90 100 99 97 86 73 56 42 40 41 44 51 52 53 50 46 44 44 46
62 64 68 69 71 73 75 76 71 72 77 90 95 101 97 94 86 66 51 42 42 44 46 48 49 48 47 45 43 45 47 48
66 66 68 71 72 75 76 78 76 78 87 90 87 89 97 78 61 50 46 44 44 46 47 47 46 45 44 44 47 48 48 47
70 73 77 76 78 78 79 80 83 92 91 89 88 96 79 60 54 50 48 46 46 45 45 45 46 48 49 50 50 48 47 48

GFSFLT1_500_spd_003.txt.gz
Wind_Speed
19 23 27 30 32 33 36 38 41 40 42 43 46 46 46 44 47 49 50 51 51 51 48 47 48 49 49 50 50 49 49 50
25 27 29 32 34 35 37 40 41 42 45 49 49 49 52 50 50 50 51 52 52 54 54 53 53 53 53 55 57 58 57 56
29 31 33 35 34 36 39 40 42 46 49 50 51 52 51 51 52 53 55 55 56 55 55 56 57 58 59 59 60 61 62 63
32 32 34 35 36 40 41 42 46 50 50 53 52 52 53 54 55 56 58 58 57 58 59 61 62 63 64 65 66 66 66 67
30 33 34 35 38 41 43 46 50 51 50 50 51 54 55 56 59 61 62 63 64 64 65 67 67 68 68 69 70 70 72 71
32 34 36 39 41 44 45 48 49 50 51 53 56 58 59 61 64 63 65 66 67 68 70 69 69 70 71 73 75 76 73 74
34 36 40 42 44 46 47 49 50 52 55 58 59 61 63 65 68 70 71 72 71 73 74 76 75 76 77 76 76 76 75 73
38 40 42 43 43 45 47 49 52 54 57 59 62 63 67 69 71 74 77 78 79 80 81 81 82 79 79 79 78 78 78 78
39 41 43 45 47 49 50 52 56 59 61 64 68 71 73 75 77 78 79 82 83 85 87 87 87 85 82 82 80 81 81 81
41 44 46 48 50 51 55 59 63 65 67 71 74 76 77 80 81 82 83 87 89 88 89 91 90 91 91 93 90 84 79 76
42 46 47 49 53 56 60 64 66 69 73 76 78 79 82 82 82 85 89 84 88 90 92 95 96 98 97 83 73 67 61 56
46 48 50 53 57 62 65 68 71 74 77 78 80 82 83 83 87 90 86 87 92 98 96 95 91 77 62 56 47 48 45 51
47 49 52 58 62 65 69 72 75 77 78 79 80 83 87 87 87 85 88 93 100 97 91 81 66 52 44 43 47 50 53 50
50 55 59 62 65 69 72 75 77 78 78 80 82 82 83 87 85 90 95 97 97 90 67 53 44 40 39 43 46 47 48 48
57 58 62 65 67 70 72 74 76 79 78 80 81 86 86 85 91 94 96 95 82 58 46 41 40 42 45 46 46 47 47 48
59 63 67 68 69 72 75 78 80 79 76 78 84 85 87 91 96 100 85 69 54 48 45 46 46 46 48 49 49 48 46 44
65 68 71 72 73 77 80 80 80 78 76 83 85 88 90 96 98 77 58 50 50 50 50 48 47 47 47 46 45 44 43 43
71 71 75 78 79 82 81 82 82 80 80 84 87 91 91 86 68 57 53 53 52 50 49 48 49 49 49 49 48 48 48 48
72 74 75 79 84 83 84 84 81 81 82 86 90 85 75 67 57 55 55 52 52 54 55 55 55 56 55 54 53 52 51 51

GFSFLT1_500_spd_006.txt.gz
Wind_Speed
20 23 27 30 32 34 37 37 36 38 41 42 42 44 48 48 49 50 49 50 50 50 50 50 52 53 53 53 53 54 54 52
23 26 30 32 34 37 40 40 40 43 45 46 48 50 52 52 51 52 52 52 53 54 54 55 57 58 59 59 61 62 60 62
28 31 34 36 37 39 41 42 44 46 49 50 51 53 54 52 52 53 55 56 57 58 59 61 63 66 66 66 67 68 68 65
31 34 36 37 39 41 42 44 47 50 52 54 54 54 54 55 57 58 61 62 64 65 66 67 69 70 70 71 71 71 73 71
35 35 37 39 41 44 44 47 50 51 52 53 53 54 56 59 61 63 65 67 69 70 72 74 75 75 75 75 75 75 77 75
35 37 39 42 44 45 47 48 47 49 52 53 55 57 60 64 66 67 69 71 74 76 77 79 79 78 77 76 76 77 78 78
37 39 42 45 45 45 44 46 48 50 52 54 57 62 66 69 70 71 73 76 78 80 80 81 80 81 81 83 82 81 79 79
38 41 42 42 42 43 46 49 52 53 56 60 64 67 72 74 74 75 78 79 80 80 82 82 84 85 84 82 85 86 83 82
37 39 39 41 45 48 51 52 55 57 60 64 69 71 72 75 77 77 78 80 82 84 84 86 85 87 86 87 91 93 94 91
35 39 42 47 50 51 51 54 57 61 65 67 68 71 74 77 78 79 81 82 83 82 83 84 86 90 91 95 91 88 80 74
42 45 49 50 51 53 55 58 61 63 66 69 72 75 77 79 81 82 81 80 82 85 86 88 92 94 93 84 71 61 53 50
44 46 47 50 53 56 60 62 66 70 72 74 75 78 81 81 82 81 79 82 86 88 89 91 95 85 71 56 48 45 40 47
45 48 51 54 57 60 64 67 68 70 74 76 80 83 83 81 81 78 79 87 88 91 91 82 72 61 47 45 44 43 45 50
50 52 54 58 62 67 71 72 75 76 76 83 87 87 83 83 80 81 85 87 92 86 72 62 52 48 45 47 47 48 50 50
55 58 62 66 70 71 72 74 78 72 74 87 88 83 83 81 83 84 89 91 81 69 60 52 52 51 49 48 50 50 51 51
58 63 68 71 72 73 74 75 74 70 83 95 89 84 83 83 85 85 85 72 62 55 55 55 52 50 49 48 49 49 48 48
65 71 75 77 76 76 77 77 76 84 94 90 86 84 85 86 84 78 67 61 55 56 54 53 54 54 52 52 52 52 52 51
73 76 77 77 72 70 78 82 85 87 88 84 84 84 83 81 70 63 56 53 54 54 56 58 59 60 58 57 56 55 54 54
76 78 77 77 77 78 82 84 84 84 81 81 82 81 75 67 57 52 52 53 55 58 60 61 60 59 57 55 54 53 52 51

GFSFLT1_500_spd_009.txt.gz
Wind_Speed
21 25 27 29 31 34 38 38 39 42 44 44 46 49 51 52 52 51 51 50 51 53 55 56 57 57 57 57 58 59 60 62
26 28 30 33 36 38 41 43 44 46 48 48 50 53 55 55 55 54 54 53 53 56 58 60 61 62 63 64 65 65 66 67
29 30 33 36 39 42 41 46 47 49 50 51 54 56 56 56 56 57 58 58 60 62 65 66 67 69 70 72 73 73 73 73
31 33 37 40 42 45 47 49 49 51 53 54 57 57 57 57 59 59 60 64 67 68 69 69 70 73 74 76 77 77 77 75
34 36 40 43 45 45 47 49 51 53 54 56 55 56 57 59 61 62 64 68 70 72 74 75 75 77 78 78 78 77 78 77
37 41 43 44 44 47 50 51 51 50 51 53 56 56 58 59 66 66 63 70 72 75 77 78 77 77 78 80 80 80 79 79
40 42 45 45 46 48 48 47 48 51 54 55 57 57 56 59 67 69 71 72 75 77 77 79 80 81 80 80 80 81 80 81
42 42 44 43 42 43 43 48 52 56 56 57 59 61 64 66 69 72 74 75 76 78 80 80 79 80 81 81 82 81 84 84
38 37 38 38 42 46 49 53 54 57 58 60 64 68 70 71 73 75 74 75 78 79 79 80 80 80 81 82 86 86 87 90
33 35 42 42 46 50 50 52 55 58 61 64 67 70 72 75 77 78 80 82 84 83 81 80 81 81 80 84 87 90 82 74
38 40 42 46 48 50 54 55 58 63 68 72 73 74 74 77 80 80 84 84 92 84 82 81 82 83 86 88 81 69 62 55
43 45 47 48 49 53 58 63 67 71 74 76 76 77 77 79 79 83 88 95 90 85 84 82 83 83 76 67 58 52 50 49
44 46 49 54 57 60 65 70 74 77 78 79 80 82 82 79 82 88 92 89 89 87 84 81 73 66 59 54 52 51 52 52
45 47 52 58 62 67 72 76 78 79 78 79 76 79 80 89 87 87 87 86 84 81 74 66 60 54 52 54 54 51 51 51
49 54 59 64 70 75 77 79 80 79 76 75 77 80 84 86 86 87 85 84 79 71 62 55 52 51 53 52 54 54 54 54
55 60 65 70 74 77 80 81 82 80 79 81 81 82 83 84 84 82 80 73 66 59 53 51 52 54 55 55 57 57 57 56
60 65 71 76 80 83 83 81 80 81 83 83 83 82 81 82 81 78 71 65 57 51 52 54 56 58 60 60 59 58 56 54
68 74 79 82 83 82 82 84 84 86 87 86 83 81 81 79 77 71 63 56 51 52 54 55 58 61 60 56 54 53 50 48
74 78 80 80 81 82 83 84 84 84 84 83 83 81 80 75 69 64 58 51 51 53 54 58 60 57 56 50 47 45 44 43

GFSFLT1_500_spd_012.txt.gz
Wind_Speed
29 26 27 27 30 31 38 41 41 39 42 46 50 51 51 52 54 56 52 53 51 52 52 53 55 56 57 58 58 58 59 61
29 27 29 32 33 36 40 39 36 44 51 51 52 52 54 56 58 57 55 56 56 57 57 59 60 62 63 62 62 63 64 66
29 30 31 35 35 39 42 44 47 49 51 54 54 53 57 58 58 58 59 58 57 60 61 64 67 68 71 71 72 71 70 70
31 33 34 37 41 43 45 48 49 50 53 55 56 56 57 57 58 62 63 62 60 58 69 74 73 72 74 76 76 77 77 75
34 34 37 40 42 45 47 49 51 50 54 55 55 55 58 60 61 62 62 64 66 69 72 75 75 76 77 78 78 79 80 78
37 39 40 41 42 45 48 49 50 51 51 52 54 58 58 59 61 63 65 68 72 74 76 77 77 80 80 80 81 78 78 79
39 41 44 43 42 42 44 46 47 51 53 53 54 56 58 61 65 69 72 75 76 77 79 80 82 84 82 84 82 83 82 82
40 42 43 45 41 38 41 44 49 51 55 57 60 62 65 69 72 74 76 77 76 77 79 80 82 82 84 88 91 94 90 86
40 40 40 39 40 42 45 46 48 53 58 61 64 68 71 75 75 75 76 77 79 82 82 83 84 85 87 91 92 89 86 84
42 37 39 39 42 46 48 51 52 56 60 64 69 73 76 78 79 79 79 78 79 82 86 87 91 87 87 87 85 82 79 75
40 39 41 41 44 47 49 52 57 62 67 73 77 79 81 81 80 80 79 80 81 84 86 86 87 85 84 80 73 66 60 55
38 40 42 42 44 49 55 60 65 71 77 79 81 83 84 82 82 80 79 80 81 82 83 83 81 77 71 65 60 54 49 47
37 38 43 47 52 58 63 68 74 77 80 85 85 85 82 81 80 81 81 81 79 80 79 77 71 63 57 52 48 47 48 48
40 42 46 51 57 64 70 76 80 84 85 84 81 81 80 81 81 83 79 79 80 79 75 67 60 54 49 49 48 50 51 52
44 49 55 59 64 71 76 80 84 86 85 87 83 84 84 84 81 82 81 80 77 73 66 60 53 48 49 49 51 54 55 55
51 57 62 67 72 77 82 84 86 87 88 89 89 91 92 89 83 82 78 76 73 68 60 53 49 49 51 52 55 57 56 53
57 63 68 73 77 81 86 88 89 85 85 85 84 85 87 90 86 79 77 76 70 56 48 47 47 50 52 55 56 55 51 48
64 69 73 78 82 85 87 87 86 85 85 88 84 77 67 78 69 77 76 66 51 43 44 46 48 51 55 57 55 51 50 48
68 72 76 81 84 86 86 85 86 87 86 89 78 74 71 68 67 72 65 46 41 43 44 47 49 53 58 58 53 52 50 47

GFSFLT1_500_spd_015.txt.gz
Wind_Speed
25 28 26 27 28 29 35 36 37 39 44 46 47 49 51 53 55 54 52 51 52 55 56 56 57 58 59 60 60 61 61 61
30 31 29 32 33 38 40 40 43 46 48 49 48 53 54 56 57 55 55 56 58 58 59 59 60 60 62 65 67 69 70 71
30 31 35 33 34 37 42 45 44 48 49 52 53 51 55 55 55 57 60 61 61 63 65 65 66 67 69 72 74 76 76 78
29 32 33 36 40 42 43 45 48 50 51 52 53 53 51 53 56 58 59 62 64 65 67 71 74 76 77 78 79 79 79 79
29 35 38 40 42 43 43 46 47 48 50 49 48 50 52 53 55 58 61 63 67 71 73 76 78 80 82 82 82 82 82 81
34 35 37 38 39 42 44 44 43 43 44 45 49 49 51 55 58 61 66 70 74 77 78 80 82 83 82 82 82 83 84 83
41 40 40 39 38 37 40 41 44 47 48 47 47 49 53 57 62 67 73 76 77 80 83 82 81 82 83 84 84 84 84 85
43 45 46 42 36 36 37 39 41 46 48 51 55 60 65 70 74 77 80 82 82 84 84 83 83 84 84 84 85 87 87 88
42 47 43 39 38 36 38 40 41 43 48 53 58 64 69 74 77 80 82 83 82 81 81 82 82 82 84 85 85 86 87 86
37 37 37 35 36 37 39 43 47 53 57 64 69 74 79 83 85 83 82 80 79 80 80 80 80 81 81 82 81 79 75 70
38 39 38 38 39 42 45 50 56 61 66 71 76 80 83 85 86 82 81 80 81 81 81 80 80 79 77 74 70 65 59 53
32 34 38 40 42 47 52 57 62 66 71 76 80 84 87 86 83 81 80 82 82 84 75 74 72 71 69 65 61 54 47 44
31 35 38 42 47 52 57 61 67 72 76 80 84 87 87 84 83 82 85 86 86 75 76 71 72 70 64 59 52 44 44 45
36 39 43 47 51 56 61 67 72 76 80 85 88 89 89 88 88 89 90 88 81 72 80 70 79 64 54 45 40 41 45 47
40 44 48 53 58 62 67 72 76 81 85 88 89 89 89 88 86 83 81 66 68 71 78 64 70 49 41 38 41 44 46 50
46 50 54 59 63 68 73 76 80 85 88 90 91 90 91 89 85 78 59 62 72 80 65 68 52 45 42 43 44 47 52 54
49 54 58 62 67 72 76 81 85 88 90 92 90 91 89 84 78 70 58 64 68 63 60 62 48 46 46 47 49 52 53 53
53 58 62 68 73 78 81 86 89 90 91 89 90 89 84 75 70 59 54 59 55 54 53 46 47 47 48 51 53 52 50 49
58 63 68 74 78 81 84 87 89 89 89 90 88 83 74 68 59 43 54 48 51 51 43 45 46 48 51 52 50 47 47 47

GFSFLT1_500_spd_018.txt.gz
Wind_Speed
22 21 21 23 27 30 27 31 32 35 43 47 47 43 38 40 47 50 47 48 49 49 48 49 49 50 52 55 57 60 61 62
26 26 29 31 27 29 35 37 42 49 50 50 45 41 41 47 51 48 50 50 51 53 55 56 57 58 61 64 66 68 70 72
25 25 26 27 29 35 42 47 49 50 50 43 42 49 51 48 48 52 53 55 58 60 61 65 68 71 73 74 75 76 78 79
22 23 25 31 36 41 43 46 48 49 51 52 53 51 48 50 54 55 57 60 63 65 69 73 76 79 81 83 84 83 82 84
22 23 28 35 39 41 43 46 49 50 50 49 46 46 49 51 53 56 60 63 66 71 75 78 81 83 85 85 84 83 83 83
25 31 36 35 39 39 42 43 46 45 44 43 45 47 49 49 53 57 62 67 71 76 80 82 84 85 83 82 82 84 86 86
31 40 40 42 41 46 45 45 42 42 42 42 43 44 49 54 59 64 69 73 78 82 84 86 87 86 83 82 82 83 84 86
35 35 42 43 41 36 35 37 38 40 39 41 46 51 57 63 68 72 78 84 86 89 90 88 86 84 84 84 86 86 88 88
36 43 47 41 33 28 29 31 32 36 42 48 53 60 65 70 74 79 83 87 90 90 88 86 87 86 86 88 88 87 84 85
45 39 39 35 32 31 33 37 41 45 51 57 63 68 72 77 80 84 87 89 90 88 88 89 89 88 86 81 75 76 77 79
31 32 34 34 34 37 41 45 50 54 59 63 68 73 77 81 86 88 89 87 86 88 88 86 84 81 75 66 68 78 73 63
34 39 38 39 41 43 47 52 56 61 64 69 73 78 81 85 88 89 89 90 92 91 87 84 79 66 69 73 78 67 59 49
35 37 38 40 43 47 51 55 59 63 68 73 77 81 85 89 92 93 93 92 92 88 80 71 66 59 68 75 74 60 49 47
37 39 40 43 46 50 54 59 63 68 73 77 82 86 90 92 92 92 93 94 88 75 69 64 55 64 71 76 55 50 50 50
40 41 43 46 50 54 58 63 67 72 77 82 85 90 92 94 94 94 91 85 77 70 63 51 61 67 60 46 49 51 50 52
40 43 48 51 54 58 63 68 72 76 80 84 89 93 94 94 95 93 86 77 71 62 50 48 53 47 44 49 50 50 53 56
44 48 52 54 58 63 67 71 75 80 84 88 92 92 93 94 92 88 76 65 58 49 42 49 43 44 48 48 49 52 54 53
49 52 54 57 62 67 70 74 79 83 87 89 90 90 92 92 88 75 61 51 41 33 36 44 42 46 46 48 52 51 50 47
52 54 56 61 65 69 74 77 81 84 86 88 88 90 92 89 73 57 43 33 26 30 38 39 44 45 46 50 48 48 44 42

GFSFLT1_500_spd_021.txt.gz
Wind_Speed
15 16 18 21 22 18 19 27 29 28 38 47 47 48 48 40 38 43 47 45 45 45 42 45 46 48 51 53 55 57 60 61
18 21 20 21 19 18 22 28 41 43 45 49 49 45 38 44 48 46 48 47 47 47 49 52 56 58 61 62 65 67 69 71
23 25 23 22 21 25 33 38 44 47 48 49 44 45 49 52 50 48 49 49 51 54 58 62 65 67 70 73 76 77 78 80
24 22 23 27 28 33 37 42 45 50 52 52 53 52 51 49 50 50 50 53 58 62 66 71 74 76 79 82 83 84 85 85
26 27 29 29 35 37 46 50 51 53 56 56 53 50 50 50 51 54 57 61 65 68 72 76 78 79 83 85 87 87 87 86
26 32 33 35 41 45 47 50 54 54 48 46 44 45 47 50 52 56 59 63 67 71 74 78 83 87 90 90 90 89 88 87
33 35 33 42 41 41 45 50 49 44 43 43 44 45 47 50 55 60 64 69 74 77 82 86 89 91 91 90 90 90 91 90
32 31 37 41 47 46 46 44 39 37 38 40 43 46 51 56 61 66 72 77 82 85 88 91 93 93 92 92 92 92 92 91
32 30 42 45 44 46 39 34 33 36 39 43 49 54 59 63 67 72 77 82 86 89 93 95 96 96 96 96 95 93 85 78
39 45 43 39 43 36 32 35 38 41 45 50 55 59 63 67 73 78 82 85 89 94 96 97 97 97 99 97 87 75 74 68
32 34 36 37 35 38 40 41 44 48 52 56 60 64 69 73 78 82 85 89 93 96 98 97 99 99 93 80 76 71 66 64
33 35 37 36 40 43 45 47 51 54 58 61 65 70 73 78 82 85 89 93 97 99 97 99 98 90 77 72 70 65 65 68
36 39 42 44 46 47 48 52 56 59 62 65 70 73 77 80 84 88 92 95 99 98 99 96 83 75 68 65 58 60 64 61
37 40 42 44 45 48 52 55 59 60 63 67 71 75 78 82 87 92 95 99 98 99 97 82 70 63 54 43 47 47 48 51
37 40 42 44 47 51 54 57 58 62 66 70 75 79 85 88 91 95 99 99 98 96 80 62 55 43 41 44 44 49 52 52
38 41 44 47 50 54 56 57 61 65 69 75 80 85 88 89 92 96 95 96 95 77 57 48 40 34 36 41 48 50 50 54
42 45 48 50 54 55 57 61 65 69 73 79 84 87 88 90 94 94 93 94 75 55 43 39 34 36 41 47 49 49 53 49
46 48 50 53 54 57 61 65 69 73 78 84 85 86 87 92 92 91 90 75 56 44 39 37 37 40 44 47 47 50 50 49
49 51 53 54 56 60 64 69 73 78 83 86 86 86 89 90 89 89 78 58 44 39 39 37 39 42 46 46 46 50 45 44

GFSFLT1_500_spd_024.txt.gz
Wind_Speed
12 14 12 15 18 20 16 15 22 27 33 36 36 39 44 47 45 42 47 54 54 49 47 42 44 47 51 54 56 59 61 63
14 17 20 21 21 20 17 23 35 38 38 36 45 49 46 51 54 54 51 51 49 46 46 49 53 57 61 63 65 67 71 73
17 21 22 21 19 20 32 38 41 44 45 53 52 52 53 52 49 47 46 45 44 48 52 56 61 66 69 72 74 76 78 81
21 21 23 25 29 34 39 43 44 46 51 52 53 54 48 46 46 44 43 47 52 56 60 63 66 69 72 75 78 81 84 86
23 23 24 25 33 38 36 39 46 48 51 54 57 54 49 45 42 45 50 54 58 60 62 65 70 74 78 81 83 86 89 92
26 26 26 31 36 39 36 43 42 52 51 55 55 50 46 46 49 52 54 57 60 64 68 73 78 81 84 86 89 92 96 98
29 29 33 36 34 39 42 47 57 49 49 50 46 45 46 47 50 55 59 63 67 70 74 78 82 85 89 92 95 99 99 97
26 28 32 41 39 41 46 52 48 47 47 46 45 47 50 53 58 61 64 67 71 75 79 83 86 90 94 96 99 99 100 101
25 25 37 41 41 46 50 47 47 45 45 46 49 51 54 58 60 63 67 70 76 79 84 87 91 94 95 98 98 102 103 92
22 26 31 34 37 41 42 44 44 47 46 46 49 53 57 59 62 66 70 75 79 85 90 93 96 100 103 103 104 104 87 75
26 29 31 34 36 38 40 42 45 45 47 51 55 58 60 63 67 71 76 82 87 91 94 96 100 103 102 104 95 77 67 59
29 31 33 34 36 40 44 47 49 51 54 57 60 61 64 68 72 77 82 88 92 93 95 97 101 102 100 87 66 59 50 43
32 34 37 40 41 44 47 50 53 56 58 60 61 64 69 73 77 82 87 92 92 94 95 100 100 98 82 60 50 43 39 42
37 39 40 42 45 47 50 53 56 58 60 61 64 68 72 76 81 86 91 91 92 94 98 99 96 78 56 48 40 40 41 47
39 40 41 43 46 49 52 55 56 57 59 63 66 71 76 80 85 89 89 91 93 97 96 92 75 55 45 42 40 42 47 50
41 42 43 45 48 51 55 55 56 58 61 65 69 75 79 83 87 89 90 92 97 94 89 76 57 44 41 41 42 46 50 51
43 45 48 49 51 54 56 56 58 60 64 68 74 79 83 87 89 89 90 95 93 88 76 59 44 39 41 42 44 47 51 51
47 49 50 51 53 56 57 58 59 63 67 74 79 82 86 88 89 90 93 91 85 75 60 46 38 39 40 42 45 47 49 50
50 52 52 52 55 58 58 59 62 67 73 77 82 85 87 87 89 93 90 83 74 62 47 38 36 38 39 42 45 47 48 49

GFSFLT1_500_spd_027.txt.gz
Wind_Speed
11 9 10 13 16 18 20 22 25 33 27 39 38 36 40 43 44 41 45 46 43 44 44 42 40 42 45 47 51 55 58 61
15 15 18 19 20 22 20 26 23 41 42 44 43 44 45 46 48 48 47 45 44 43 41 42 46 50 54 57 60 63 66 68
17 17 19 21 22 20 25 30 35 42 39 42 45 44 49 51 49 45 43 42 40 42 46 51 55 58 59 60 62 64 66 72
20 21 22 25 28 28 30 34 40 42 42 45 53 55 59 58 54 50 47 47 48 50 53 56 58 58 61 64 69 72 78 83
19 21 23 26 28 31 34 38 42 42 43 50 53 57 52 53 53 51 50 51 52 55 56 59 61 64 68 72 76 81 85 88
19 23 25 24 26 31 32 38 40 41 49 53 53 48 51 50 52 52 52 54 57 60 62 64 67 71 76 81 86 89 91 93
20 24 26 28 29 31 36 40 41 47 49 49 48 49 50 50 52 53 56 58 61 62 65 69 73 78 82 87 92 93 95 98
21 24 27 28 30 34 38 39 39 42 44 46 48 50 54 53 53 56 59 61 61 65 70 74 78 83 88 92 92 95 100 105
18 20 23 25 27 30 32 35 38 41 44 47 50 51 51 53 56 59 61 62 66 70 74 79 84 89 93 94 97 102 106 110
17 19 22 25 29 32 34 37 40 43 46 49 52 54 56 58 59 60 61 66 70 76 81 86 90 93 95 98 102 107 105 90
20 22 25 28 31 34 38 41 43 46 48 51 55 58 59 60 60 62 65 70 76 81 86 89 92 94 97 101 104 98 83 64
24 27 30 32 34 36 39 42 45 48 50 54 58 59 60 60 62 65 70 76 81 86 91 92 94 96 100 99 90 76 58 46
28 31 34 36 38 42 44 47 49 50 52 56 59 60 60 61 64 69 75 81 86 90 91 92 95 99 96 85 72 56 45 44
33 35 38 40 42 45 47 50 50 51 54 57 59 59 61 64 69 75 80 84 87 90 90 95 98 96 82 69 54 43 41 42
37 38 40 43 45 47 49 50 51 53 57 59 60 60 63 68 74 78 82 86 88 89 95 98 94 81 68 54 43 39 40 43
40 41 43 45 48 50 50 51 53 56 59 60 60 62 67 72 76 81 83 85 89 94 97 93 79 67 54 43 38 38 40 43
44 45 47 48 52 51 52 53 55 57 59 60 61 66 71 75 79 82 84 88 93 96 91 77 66 55 43 37 37 37 39 43
47 48 49 51 53 52 53 55 56 59 59 61 65 69 74 77 81 83 88 91 94 89 77 65 55 45 37 35 34 36 40 42
50 50 52 54 53 54 55 56 59 59 61 65 69 73 77 80 82 87 91 94 86 76 65 56 47 38 34 34 35 37 40 41

GFSFLT1_500_spd_030.txt.gz
Wind_Speed
13 14 16 15 16 19 21 23 24 26 36 33 38 38 32 37 40 43 44 39 37 39 40 41 42 42 42 44 47 50 53 54
14 16 18 18 20 22 22 26 25 28 34 38 40 43 42 43 45 50 47 43 40 39 39 42 45 47 50 53 56 57 57 58
18 17 17 19 21 23 25 27 31 33 38 41 42 42 44 49 57 57 52 50 50 50 50 51 52 55 56 57 57 59 62 65
16 18 19 21 23 26 27 28 30 35 37 42 45 48 52 54 49 48 49 50 51 53 54 56 57 57 59 60 62 66 69 73
19 19 20 22 25 28 28 27 32 36 37 40 45 48 47 47 48 50 50 53 55 56 56 57 59 61 62 65 68 73 77 81
18 20 22 26 27 28 30 32 31 31 36 40 42 43 46 49 51 52 56 58 56 57 60 61 62 64 67 71 76 80 83 86
20 22 25 24 21 20 21 24 28 31 34 37 40 43 46 49 51 54 56 58 60 61 62 62 63 67 72 77 81 86 90 92
19 18 15 15 17 20 23 27 31 34 38 41 43 46 48 51 54 56 59 61 62 62 62 64 67 73 79 84 89 92 92 94
12 14 17 18 21 24 27 30 33 36 40 43 46 49 52 54 55 59 61 61 62 63 65 68 74 79 84 88 92 92 95 99
14 17 19 22 25 28 31 34 37 40 42 45 48 51 53 54 57 60 61 62 62 63 67 73 78 83 87 89 90 95 99 101
18 21 23 27 30 32 35 38 40 43 45 47 49 51 54 56 59 62 62 62 63 67 72 77 82 85 87 90 95 98 99 88
24 26 29 31 33 36 39 41 44 46 49 51 53 54 56 57 61 62 62 63 67 73 77 82 85 87 90 95 98 97 83 72
29 32 34 36 38 40 42 44 47 50 52 53 55 57 57 59 62 62 63 67 72 77 81 83 86 89 94 96 93 81 68 58
35 36 38 41 44 45 46 48 50 53 54 56 58 58 59 62 63 63 66 71 76 81 83 86 89 94 95 89 78 66 56 45
40 42 44 46 48 48 49 51 52 54 56 58 60 60 61 64 64 66 70 76 80 83 85 87 92 94 86 76 65 55 45 39
45 47 48 49 51 51 52 53 54 57 58 60 60 61 65 64 66 71 76 80 83 85 89 92 92 83 76 66 55 45 38 37
49 49 50 52 52 53 54 54 56 56 59 59 60 63 64 66 71 76 79 82 84 88 90 93 82 76 67 56 47 40 37 38
49 50 52 53 54 55 55 54 56 58 58 59 61 62 65 70 75 82 83 84 85 90 93 81 76 70 59 49 41 37 37 38
49 50 52 54 55 53 52 54 57 57 58 60 65 66 68 74 80 83 84 86 88 93 84 74 71 61 51 42 37 36 36 36

GFSFLT1_500_spd_033.txt.gz
Wind_Speed
9 10 12 13 15 17 19 21 24 26 28 32 39 37 34 39 40 42 43 45 43 44 41 40 43 45 47 48 49 50 51 52
12 13 15 17 19 22 24 25 25 26 29 32 36 37 38 40 41 44 45 46 47 48 48 48 48 51 50 50 52 53 53 54
15 16 17 19 20 22 25 28 31 32 33 32 35 38 38 38 40 42 44 45 47 48 48 51 50 49 53 55 55 55 56 58
17 18 19 21 23 27 27 29 31 32 31 35 36 36 37 39 42 45 46 48 49 51 52 52 56 58 58 58 59 59 60 62
18 20 23 25 28 29 30 30 30 31 31 30 33 35 38 40 43 46 49 50 52 54 57 59 61 60 60 61 62 64 66 71
23 25 27 27 28 28 24 22 22 23 26 30 33 37 40 43 47 51 53 55 55 56 59 62 64 64 63 63 64 68 73 77
27 27 27 25 21 17 18 20 23 25 29 32 35 39 42 46 49 52 55 58 59 61 62 64 64 64 64 66 70 75 79 84
28 25 18 16 16 18 21 24 27 30 33 36 39 42 46 49 52 55 57 58 59 61 62 65 65 65 67 71 75 80 84 88
16 15 16 17 19 22 26 29 32 35 38 41 44 47 50 52 55 56 58 59 60 62 64 66 66 67 72 76 81 84 88 91
15 18 20 22 25 29 32 35 37 39 42 45 47 49 52 56 57 59 60 61 62 64 67 67 68 72 76 81 85 88 93 94
20 23 27 30 32 35 38 40 42 44 46 48 49 51 53 54 58 60 62 62 63 66 68 69 72 76 80 84 88 90 93 93
26 29 31 35 37 40 43 45 47 48 50 52 53 54 55 58 60 62 63 63 65 67 68 71 76 80 83 87 89 91 92 94
31 33 36 39 41 44 46 48 50 51 53 54 55 54 57 59 61 62 62 63 65 66 69 74 79 83 86 88 89 92 94 83
36 38 41 43 45 48 50 51 52 53 55 55 57 57 59 59 61 62 63 65 67 68 72 77 82 82 82 86 91 96 87 71
42 45 46 48 49 51 53 52 53 55 56 56 56 57 60 61 61 62 64 68 70 72 76 80 81 83 85 89 90 87 76 62
47 49 51 52 52 53 54 54 54 56 57 56 56 58 60 61 60 62 68 73 73 76 80 79 82 83 86 86 82 71 67 54
51 51 52 52 53 53 54 55 55 57 56 55 57 58 59 60 62 66 73 74 77 79 81 81 81 83 81 80 76 64 56 46
53 53 52 52 52 52 54 55 55 54 54 55 56 57 59 61 64 71 78 81 85 83 79 83 84 86 78 75 69 58 47 41
52 50 50 51 53 53 54 53 53 54 55 56 56 59 64 67 69 77 80 83 81 76 84 84 85 82 71 71 61 47 40 38

GFSFLT1_500_spd_036.txt.gz
Wind_Speed
3 4 7 8 11 14 17 19 21 25 26 28 30 32 33 33 35 35 33 32 34 36 38 41 42 44 46 48 49 49 51 52
7 10 11 15 14 19 20 22 25 27 28 29 29 28 30 33 32 32 33 36 38 42 44 46 45 47 50 49 50 51 49 49
10 12 14 17 15 20 23 25 27 27 27 28 27 29 28 30 33 35 38 41 44 47 49 51 52 52 52 55 56 56 54 53
14 15 16 20 21 24 26 28 26 27 25 23 22 25 28 31 34 37 41 43 47 49 51 51 54 56 58 59 59 59 58 56
17 20 21 23 26 26 27 27 23 21 21 23 26 28 31 34 36 38 42 45 49 52 55 57 58 58 59 59 60 60 60 62
24 22 26 27 28 27 25 19 20 21 24 26 30 34 36 39 42 45 48 49 53 54 55 57 58 59 59 59 62 62 63 67
29 28 28 29 27 21 18 20 20 25 29 31 35 39 42 44 47 49 51 53 54 57 58 60 62 62 62 63 64 65 68 73
30 29 26 19 16 19 21 23 26 30 33 37 40 43 46 48 50 51 53 55 56 57 59 61 63 62 63 64 65 68 72 76
18 17 15 16 20 22 25 29 33 35 39 42 44 47 49 51 53 55 56 57 57 59 60 62 62 62 64 66 67 71 76 80
14 16 19 22 25 28 32 35 39 41 45 47 49 51 53 54 55 57 58 55 59 61 62 63 63 65 67 69 71 76 80 83
19 21 24 26 29 32 37 41 44 45 48 49 51 54 54 55 56 56 55 57 60 62 63 63 64 66 69 71 75 78 82 83
24 27 29 32 35 38 40 44 48 49 51 51 54 56 56 56 57 57 55 61 65 64 63 64 65 69 72 75 79 83 85 84
29 31 35 37 41 43 45 48 51 53 54 53 55 57 58 57 59 58 54 61 63 63 64 65 68 72 78 81 84 83 82 85
35 39 40 43 46 49 51 51 52 54 53 54 55 57 58 60 59 55 62 61 62 63 66 69 73 79 87 84 81 77 81 84
40 46 50 50 51 52 53 53 51 53 53 55 56 57 55 57 58 57 60 61 63 67 70 72 77 86 89 83 83 85 86 87
47 49 51 52 54 53 52 54 52 51 55 56 57 55 55 56 58 59 61 64 67 70 73 77 81 84 81 82 85 85 88 87
51 47 49 52 54 55 52 53 53 54 55 54 53 54 55 58 60 62 64 68 69 71 76 80 80 80 79 82 83 84 81 70
51 53 51 52 55 56 54 53 53 52 52 53 54 56 57 58 59 61 66 71 73 76 85 81 77 81 74 76 78 75 73 62
51 53 54 52 51 53 52 51 51 52 53 55 55 55 57 61 63 66 73 84 80 85 85 76 75 74 74 73 70 72 60 54

GFSFLT1_500_spd_039.txt.gz
Wind_Speed
4 4 5 1 4 7 10 15 13 16 18 20 21 22 22 21 23 21 22 24 26 28 31 34 37 40 42 45 46 47 47 48
0 3 1 3 9 13 14 19 19 20 22 22 24 23 21 20 22 24 27 29 30 33 36 38 42 44 46 48 49 50 50 50
8 10 9 8 9 14 18 22 24 21 21 20 18 18 20 22 25 28 32 34 36 40 42 43 45 47 49 50 51 54 54 53
12 14 16 16 17 18 21 22 23 20 20 17 17 20 23 27 30 33 37 40 42 45 46 47 48 49 49 51 54 56 56 55
12 19 23 21 22 24 22 19 19 17 17 18 23 25 28 31 35 38 42 45 48 50 50 49 50 51 52 54 56 57 56 55
12 15 22 25 24 23 19 14 15 17 20 22 29 31 33 37 41 43 46 49 51 51 53 55 55 53 54 56 58 58 57 56
14 12 17 23 25 18 15 16 18 22 26 29 34 38 41 44 47 49 52 55 56 57 57 58 58 59 61 61 62 61 59 61
17 14 12 13 16 15 18 21 22 27 33 36 39 43 46 49 53 54 56 57 57 58 58 58 55 60 63 63 63 63 63 65
13 11 9 12 15 18 22 26 27 31 36 39 43 46 49 52 54 54 55 55 57 57 57 56 54 62 65 66 64 64 67 69
11 13 14 17 20 22 26 31 34 36 38 41 45 48 51 54 55 55 54 55 56 56 58 54 55 61 64 65 64 68 70 72
16 18 20 22 26 29 31 35 39 41 41 44 47 47 50 52 52 54 57 57 52 58 61 56 60 67 64 63 66 68 71 75
21 23 25 26 28 32 37 40 45 46 47 47 47 47 49 51 53 56 56 56 50 65 61 58 62 65 66 69 71 74 74 78
27 29 31 32 34 37 39 41 45 48 50 50 48 49 52 50 55 56 56 52 51 61 60 60 62 68 73 75 77 78 79 79
33 35 37 39 42 38 38 40 47 50 51 52 52 53 56 55 57 55 54 55 55 59 58 65 67 70 75 78 85 82 84 76
38 41 43 44 40 40 41 45 50 50 53 51 52 55 55 56 55 55 57 57 58 58 59 66 69 71 76 82 86 88 80 77
45 48 44 42 41 47 45 47 47 54 51 53 54 54 55 55 56 58 60 58 61 63 67 69 71 72 75 79 83 74 75 80
46 48 46 46 46 40 41 48 51 51 53 53 53 54 55 57 59 58 59 62 68 72 82 76 75 76 74 69 71 74 77 76
45 47 49 51 52 48 44 45 48 49 52 55 55 56 58 58 59 61 63 64 69 72 82 86 84 78 69 66 70 71 68 62
47 48 48 47 48 44 41 42 46 52 55 57 57 56 57 59 60 62 69 73 80 77 79 84 79 70 69 71 71 65 61 56

GFSFLT1_500_spd_045.txt.gz
Wind_Speed
12 12 13 13 12 9 5 3 2 1 5 6 8 9 11 12 10 11 13 14 20 23 27 30 33 35 37 40 41 42 45 45
7 6 5 4 2 3 3 3 4 4 5 7 10 11 11 9 12 14 17 21 26 28 30 34 36 38 42 44 44 45 48 47
7 6 4 3 2 1 2 3 3 4 6 7 9 9 9 13 15 20 23 26 30 32 35 38 40 44 46 46 48 48 49 50
5 5 3 2 4 5 6 7 3 4 6 8 9 8 14 18 21 26 29 32 34 37 41 43 46 48 49 49 49 50 50 49
8 6 5 4 6 7 10 10 7 5 7 10 13 14 19 24 29 33 35 37 40 43 46 47 49 50 51 51 50 53 56 56
7 6 8 10 9 11 11 11 10 9 10 14 17 20 24 30 34 37 39 41 45 49 49 49 50 51 51 52 53 59 60 58
10 10 11 13 12 12 11 9 12 12 15 18 22 25 30 34 37 40 43 44 49 51 50 47 48 52 52 54 59 61 60 60
8 8 10 10 11 9 10 11 14 14 18 23 28 30 34 36 41 46 43 48 49 50 50 52 52 56 50 62 63 66 62 65
5 7 6 7 9 10 12 16 17 20 23 27 32 35 40 41 47 48 48 47 51 53 51 52 46 65 61 65 66 61 65 68
5 6 7 9 12 13 17 19 23 26 29 34 37 41 42 43 44 47 45 50 49 37 58 52 64 60 66 66 66 67 68 71
10 10 11 12 15 18 21 26 30 33 37 40 43 39 41 40 45 44 51 52 53 56 57 56 60 65 66 67 68 69 70 71
13 13 15 17 20 23 26 30 34 37 39 39 39 39 44 44 49 54 53 53 56 57 58 61 63 65 66 67 68 70 73 76
16 18 19 21 24 27 30 32 36 37 37 39 41 46 51 49 51 50 52 54 55 62 62 65 65 65 66 68 73 75 78 81
22 21 22 25 29 33 33 34 33 37 39 41 43 40 45 50 55 57 53 57 64 64 66 65 63 66 70 74 79 83 85 89
23 26 29 29 30 32 32 34 36 36 38 39 41 43 49 54 56 57 59 62 65 64 62 63 67 72 78 84 86 87 90 96
25 26 27 29 32 32 32 34 34 43 47 38 40 48 52 55 56 57 63 63 63 63 65 68 74 75 78 85 89 92 95 91
30 31 32 33 33 37 40 41 47 46 43 46 48 49 53 54 58 58 59 61 63 64 68 71 74 76 80 88 88 89 90 83
32 34 36 38 41 44 47 48 47 46 47 49 51 53 54 56 57 59 60 61 61 71 75 78 75 76 81 85 87 83 72 69
34 36 39 42 45 47 47 46 46 48 49 50 52 54 56 56 57 58 54 67 72 73 78 80 78 79 81 82 79 71 64 65

GFSFLT1_500_spd_048.txt.gz
Wind_Speed
17 15 13 13 13 11 10 9 7 7 7 9 9 10 11 9 8 7 8 11 15 19 23 26 29 33 38 40 42 45 47 48
13 12 11 11 11 9 9 7 6 6 8 10 9 11 10 10 8 10 14 16 20 24 27 30 34 38 42 44 45 46 46 46
11 13 12 11 10 9 7 6 5 6 9 9 10 9 10 11 12 15 18 22 25 29 33 36 39 43 46 46 46 48 49 49
10 11 11 9 8 8 7 6 8 8 10 11 10 9 11 14 18 21 23 28 32 35 37 40 42 46 47 48 47 48 50 52
8 9 8 8 10 10 10 9 11 11 12 13 11 11 14 19 23 23 31 32 35 39 43 43 47 48 45 47 50 51 52 52
13 13 13 13 15 14 12 13 12 12 14 12 13 15 18 22 25 30 32 39 42 46 49 45 48 50 48 50 55 51 56 59
18 18 14 14 17 17 16 14 14 13 11 13 16 19 22 24 29 31 41 42 45 51 46 48 51 54 50 50 50 50 62 65
21 21 20 19 19 16 15 12 12 14 15 15 20 23 26 30 32 35 43 45 49 46 45 45 56 47 47 59 64 58 64 66
18 21 17 15 13 12 13 12 14 15 16 20 24 28 31 34 36 41 41 44 45 47 42 52 48 54 58 59 60 64 64 67
10 10 12 12 10 12 15 14 16 18 21 25 29 30 34 33 34 38 41 46 50 52 50 56 62 58 60 65 63 67 67 69
11 10 12 14 13 14 17 19 21 23 27 30 32 32 31 31 35 39 43 47 54 57 61 59 61 63 64 70 71 70 70 72
15 14 15 16 17 20 21 24 27 30 32 34 34 34 34 32 36 40 44 52 55 55 66 62 66 67 70 73 69 70 71 76
19 19 19 20 24 26 26 30 32 33 35 36 37 39 37 37 38 47 49 57 60 65 54 68 69 71 70 70 71 71 75 81
22 24 26 28 29 30 31 32 33 35 37 34 37 37 39 46 52 54 56 60 65 64 63 60 70 68 68 69 74 78 83 87
26 28 29 30 33 35 35 33 33 35 36 38 39 47 43 48 47 51 56 59 62 62 65 67 67 68 68 70 78 82 84 89
23 25 30 33 34 33 33 33 33 34 38 38 43 42 44 47 51 53 57 59 60 63 63 63 65 63 73 78 83 85 88 88
26 28 32 32 33 34 33 34 37 39 42 43 45 46 47 51 54 56 58 59 60 60 60 65 66 70 78 79 84 89 87 86
29 32 33 34 34 34 36 39 42 44 47 48 49 49 51 53 56 58 58 59 57 60 63 67 71 74 75 78 82 83 83 83
31 32 32 33 34 37 40 43 45 47 48 49 49 51 53 56 58 59 57 53 59 62 68 74 73 74 76 78 79 82 83 81

GFSFLT1_500_spd_051.txt.gz
Wind_Speed
15 14 14 15 13 10 9 8 10 13 13 10 10 9 10 11 12 10 10 10 10 12 15 20 24 27 31 33 36 39 42 44
10 11 12 12 12 10 9 9 9 9 9 10 9 11 11 12 11 9 11 13 12 15 20 25 29 32 35 36 39 42 45 43
11 11 11 12 11 11 12 11 10 8 9 10 11 12 12 12 11 13 14 16 17 21 26 29 31 35 40 38 42 44 44 45
11 11 11 11 13 14 12 9 8 9 10 12 13 13 13 13 16 17 19 21 25 28 32 35 37 41 44 41 45 46 50 49
8 9 12 13 13 13 12 12 12 13 15 15 15 12 13 16 19 20 24 29 31 31 36 37 40 44 43 44 46 49 49 51
13 13 15 14 16 16 14 14 13 14 15 16 15 14 15 18 22 22 24 30 34 35 41 40 44 44 45 45 47 46 52 53
17 18 17 15 17 18 18 18 16 17 17 18 18 17 19 21 23 25 29 31 33 38 42 41 46 45 46 47 47 52 62 61
20 20 21 22 21 21 19 17 16 15 16 16 20 21 23 24 28 29 30 31 32 40 42 45 48 47 43 46 54 67 63 66
20 22 26 26 25 21 17 15 18 16 18 22 22 22 24 28 29 30 28 29 33 42 45 49 47 50 57 61 64 68 64 71
23 24 24 25 22 16 15 15 16 16 16 22 25 28 28 29 29 29 29 32 36 39 46 49 55 58 63 62 69 58 73 71
14 15 14 15 17 16 17 18 18 20 24 27 29 29 29 30 31 32 32 32 37 46 51 55 60 64 64 64 57 72 68 76
15 16 17 17 17 18 21 23 24 27 29 30 27 30 32 33 35 35 34 36 43 50 54 58 63 66 63 69 72 72 75 73
17 19 19 20 21 23 25 27 29 31 32 31 34 33 34 35 36 38 37 44 51 50 57 58 62 66 68 67 69 73 72 75
24 26 26 27 27 28 30 31 32 33 35 35 35 35 33 38 39 41 47 50 52 55 59 62 64 66 70 70 70 68 71 72
23 28 32 33 33 33 33 33 32 33 34 35 35 35 38 39 45 42 49 51 50 53 58 60 62 67 67 66 68 72 74 77
24 25 29 30 31 32 34 35 35 36 35 35 36 39 40 41 43 46 48 49 52 53 57 61 63 64 63 68 71 72 74 82
24 27 28 28 30 31 32 33 34 35 35 37 39 40 42 45 47 48 48 51 54 57 59 60 61 62 70 73 71 78 81 80
26 27 28 29 30 31 32 33 34 35 38 40 42 44 46 48 49 50 53 54 57 58 58 59 62 64 69 73 78 78 79 81
27 27 28 28 29 31 32 33 36 38 40 42 45 47 48 50 51 54 54 57 58 59 61 62 65 69 71 73 76 77 80 82

GFSFLT1_500_spd_054.txt.gz
Wind_Speed
14 11 6 7 6 6 7 8 11 12 11 11 10 10 11 11 12 13 16 9 12 9 10 12 15 18 21 25 28 33 36 38
10 9 8 9 8 6 5 8 9 10 10 8 10 11 12 13 14 16 12 13 12 11 14 18 19 23 27 29 33 38 39 41
10 10 9 8 8 8 8 8 8 8 9 11 12 12 12 13 14 16 16 12 16 17 20 23 25 28 32 36 37 40 40 44
9 10 10 10 11 10 9 8 8 9 11 12 12 14 12 11 13 16 15 19 20 24 25 28 31 32 35 38 39 40 44 45
8 9 11 11 11 12 13 13 12 12 12 14 14 14 14 14 14 18 20 21 23 27 32 35 37 37 41 39 41 44 48 46
11 12 13 13 13 14 14 15 15 16 15 17 19 17 17 16 15 17 23 25 25 29 32 35 35 38 40 43 46 48 50 52
13 18 17 15 16 17 17 17 17 18 17 18 21 22 21 20 21 21 25 29 31 33 35 36 35 38 44 48 51 56 56 56
21 18 18 18 19 21 20 19 20 19 18 17 20 21 27 25 25 24 29 32 34 34 34 37 38 43 48 52 57 53 58 62
14 18 23 23 22 22 22 22 20 18 19 20 20 22 22 19 25 29 31 32 31 36 35 35 38 47 50 54 58 60 63 65
17 20 21 25 25 25 24 21 19 19 21 20 22 24 26 29 32 33 33 35 34 34 34 36 42 50 53 59 63 60 66 61
15 17 18 20 20 18 18 20 19 20 22 24 26 29 33 36 35 37 37 34 31 34 34 38 46 52 57 64 62 68 67 69
17 17 18 18 18 18 20 21 22 24 25 27 29 33 34 35 39 36 35 34 35 35 36 38 48 58 62 61 67 69 71 66
19 20 19 18 19 22 23 24 26 29 30 32 35 36 38 38 39 37 37 38 38 43 46 51 57 61 62 60 63 67 66 65
22 24 24 25 25 26 26 27 30 33 34 35 36 38 39 41 40 38 40 42 46 48 46 53 57 56 59 62 65 65 61 68
22 25 28 30 32 34 33 34 36 37 36 37 38 39 40 40 41 41 42 44 46 48 49 52 54 57 60 63 65 63 68 70
22 25 29 31 33 34 34 34 35 36 37 37 38 38 38 38 39 41 43 44 46 49 51 54 57 59 61 63 64 66 68 71
26 25 27 30 31 31 31 32 33 34 35 36 35 36 36 38 40 43 44 46 50 53 54 56 58 61 62 64 65 66 69 73
28 28 27 28 30 30 31 31 31 32 33 34 35 37 38 41 43 46 48 50 53 56 57 58 60 62 64 64 66 68 71 74
29 30 30 31 31 31 31 32 32 32 33 35 37 39 42 43 45 48 51 54 56 57 58 59 61 63 63 66 69 71 74 76

GFSFLT1_500_spd_060.txt.gz
Wind_Speed
11 9 8 6 10 14 17 20 17 10 12 13 15 19 19 17 15 11 5 2 8 12 12 12 13 15 14 16 17 19 20 24
9 8 9 8 10 11 12 11 12 11 11 12 14 14 9 7 4 3 2 6 10 16 16 14 14 15 17 20 20 24 26 28
7 7 7 8 7 8 9 10 9 10 10 9 8 5 3 3 4 4 6 11 11 11 14 14 16 19 20 23 24 28 33 36
5 4 4 4 6 6 7 9 11 11 10 10 10 8 6 4 5 7 8 12 13 12 14 18 21 24 27 30 30 32 36 39
4 4 4 4 5 5 6 8 7 8 10 11 10 8 6 7 8 10 11 11 13 15 18 18 21 26 29 28 33 37 39 38
5 5 4 6 5 6 6 7 9 10 12 12 13 13 13 12 11 12 13 15 16 17 19 22 23 27 31 32 31 41 36 43
6 6 6 10 8 9 9 10 11 11 10 12 15 16 16 15 14 15 19 19 20 21 24 26 29 31 30 36 35 30 33 43
10 10 9 8 6 10 12 12 12 12 11 13 16 16 16 16 13 11 17 10 13 21 27 30 33 35 35 37 42 39 33 46
9 9 7 10 10 10 12 13 12 12 13 15 14 19 17 16 11 16 19 19 19 25 27 32 34 32 36 32 30 36 35 41
15 14 14 15 17 15 14 15 14 13 15 17 17 17 16 18 19 19 22 25 25 26 30 31 33 32 32 35 36 36 39 45
18 19 22 21 19 17 15 14 14 15 18 19 20 32 19 24 25 22 27 30 30 32 34 36 35 34 37 40 41 43 48 53
19 23 26 25 25 23 18 18 19 17 19 23 23 25 27 26 27 31 33 34 35 35 37 39 39 41 42 42 42 52 54 55
23 25 26 29 26 25 21 20 23 24 26 26 28 26 30 29 32 34 38 39 39 41 42 42 42 43 43 43 48 51 54 57
19 22 25 26 28 26 22 27 27 29 28 30 30 32 32 35 38 39 40 41 42 43 43 44 46 45 46 48 50 53 57 60
18 21 23 26 28 31 32 34 33 32 32 33 36 36 39 41 42 42 43 43 44 44 45 45 46 47 48 51 54 57 60 62
25 23 25 26 28 27 29 34 36 36 36 36 38 38 39 40 41 42 43 43 43 45 45 45 46 49 52 55 58 60 62 63
29 30 26 25 26 27 30 30 32 33 34 35 37 35 37 39 39 41 42 42 43 43 44 46 49 52 56 59 62 63 65 65
29 32 34 28 28 26 29 31 32 33 34 34 36 38 37 37 38 38 39 40 42 44 47 49 53 57 59 62 63 64 65 66
29 34 36 38 38 36 33 34 35 35 36 38 38 36 36 37 37 38 40 42 44 47 50 53 56 59 62 63 64 65 65 66

GFSFLT1_500_spd_063.txt.gz
Wind_Speed
1 3 2 10 12 12 12 2 10 14 16 19 17 14 13 16 15 16 17 15 16 16 16 14 13 15 17 17 17 17 17 15
2 2 2 10 11 14 14 15 20 18 16 18 20 18 18 18 17 13 11 9 5 7 12 15 15 16 17 17 19 19 18 20
6 8 7 8 7 10 13 14 14 14 15 14 11 11 12 10 10 9 6 4 6 3 8 15 15 17 15 18 19 21 24 27
4 3 6 4 5 7 9 10 10 11 12 12 10 9 10 7 5 4 4 3 6 7 4 7 12 13 19 22 23 25 30 28
1 2 4 4 4 5 6 8 9 9 8 7 7 7 8 3 1 3 4 3 5 8 9 10 11 12 15 18 25 29 28 33
1 1 5 2 2 3 5 6 7 6 5 5 5 5 4 2 2 3 6 6 9 9 10 12 14 17 20 23 26 30 33 35
4 3 3 4 5 4 3 4 4 4 5 6 7 9 8 6 6 6 7 10 12 13 13 16 16 20 23 27 29 30 33 36
7 8 8 4 4 5 5 5 6 8 8 9 8 9 8 6 7 8 6 7 7 14 15 15 18 23 24 26 28 30 29 30
8 10 8 8 7 7 10 11 12 13 13 13 12 12 10 9 11 9 11 12 11 13 16 18 22 25 28 29 32 30 33 36
5 13 13 13 11 12 15 16 16 16 16 14 15 15 17 14 15 18 20 19 16 12 18 20 24 28 31 31 32 35 38 40
15 10 10 14 15 18 20 18 18 20 20 18 18 17 16 21 22 23 28 29 21 15 22 25 29 31 32 33 34 36 39 41
22 20 17 13 14 19 21 24 22 22 24 21 20 22 24 27 27 25 21 20 27 25 29 31 32 33 34 35 37 39 40 43
19 23 19 13 12 17 20 23 28 28 24 26 28 34 25 28 32 16 24 30 31 35 36 34 36 36 38 38 40 41 43 45
20 22 20 20 19 22 25 28 34 37 26 17 25 26 29 26 31 32 35 34 34 35 36 36 38 38 39 42 42 44 47 51
17 13 16 21 25 26 26 25 26 26 20 23 27 29 30 30 34 37 37 35 34 35 37 38 39 40 42 43 45 48 51 55
20 21 23 22 25 27 28 28 30 28 26 28 30 30 33 34 35 36 33 35 36 37 39 40 41 42 43 44 47 52 56 60
29 29 25 23 25 25 28 30 31 32 33 32 31 32 32 34 34 35 36 37 38 39 39 40 41 42 44 48 53 57 60 62
35 36 30 21 16 23 26 29 31 32 34 35 34 33 34 34 36 38 39 39 39 38 39 41 42 44 48 52 56 59 61 62
22 31 28 23 22 23 29 31 33 34 34 35 35 35 36 37 38 39 38 38 38 39 41 43 45 48 52 56 59 61 62 63

GFSFLT1_500_spd_066.txt.gz
Wind_Speed
4 4 4 2 4 7 8 3 9 12 14 16 19 14 21 19 18 16 20 22 21 20 16 23 20 19 19 20 18 18 18 18
8 10 8 7 7 2 4 4 4 10 9 13 20 21 19 15 15 19 20 20 19 19 22 20 20 22 21 20 19 21 20 18
10 9 8 8 8 9 11 13 15 15 12 9 8 12 13 15 19 19 17 18 18 15 16 16 16 20 20 17 18 19 21 22
4 7 7 5 8 8 8 11 13 12 11 10 11 10 11 12 10 11 12 14 14 10 10 13 12 16 22 23 20 20 24 27
2 2 4 6 7 9 7 8 8 9 10 10 12 11 10 9 9 8 9 10 10 11 11 11 13 12 12 11 16 19 26 28
6 7 5 4 5 6 7 6 4 5 6 7 8 7 6 6 6 8 9 9 11 12 12 11 11 13 14 15 18 22 25 29
6 10 6 5 4 4 4 4 5 7 6 6 8 6 6 7 10 10 10 13 13 15 15 15 15 16 15 16 18 21 25 27
8 10 8 6 6 4 5 6 6 6 5 6 7 8 7 7 8 10 10 12 16 12 14 13 12 14 16 18 20 22 27 29
5 8 10 9 7 7 7 9 10 10 10 12 10 10 6 7 7 9 11 14 13 14 16 15 12 18 20 20 23 26 28 29
4 9 12 13 11 12 13 15 16 15 15 17 15 14 12 15 15 14 18 17 23 25 22 19 17 18 19 24 26 29 30 30
9 7 10 11 13 15 16 17 17 19 19 18 16 19 21 19 22 23 21 22 24 35 19 18 20 16 24 26 29 30 31 32
13 12 11 13 16 16 17 18 21 22 24 24 26 25 25 27 28 26 26 27 26 17 18 18 20 21 25 27 29 30 31 32
16 14 14 15 14 14 15 20 26 26 28 31 30 33 32 31 35 36 36 43 19 20 22 24 25 25 25 28 29 31 33 35
26 23 16 15 16 16 18 22 25 28 28 35 31 34 45 24 24 24 25 22 25 26 22 24 27 28 31 32 32 34 37 38
18 23 20 16 16 19 20 22 24 29 25 21 26 28 18 23 21 25 27 25 26 27 27 28 31 33 35 36 37 38 40 41
16 25 21 23 25 25 26 26 26 24 24 23 23 24 27 25 24 28 29 30 29 31 31 32 34 37 38 39 39 40 42 46
27 28 26 24 27 31 32 28 25 26 26 27 27 26 28 25 28 31 32 33 33 35 36 36 38 40 40 40 42 44 47 51
34 29 28 31 35 31 28 27 28 25 29 31 32 34 31 30 34 35 37 37 38 38 38 38 40 41 41 43 46 49 52 55
33 29 24 23 19 20 21 25 28 30 30 31 33 33 34 37 39 39 39 40 40 39 39 40 42 43 44 47 51 53 57 60

GFSFLT1_500_spd_069.txt.gz
Wind_Speed
3 7 7 7 6 10 8 4 10 18 18 21 21 22 19 17 20 22 22 23 24 22 23 27 27 22 22 24 21 21 20 20
1 7 5 4 7 8 9 6 6 12 11 15 18 20 21 20 18 22 26 23 23 27 28 30 26 28 23 22 21 21 20 20
4 5 4 3 5 5 9 10 13 13 10 9 6 15 23 24 22 23 24 22 22 23 25 26 27 24 22 18 17 18 20 21
4 2 4 5 4 2 3 6 7 8 9 10 10 12 15 14 14 13 16 18 19 18 18 20 21 21 19 18 19 20 22 22
5 5 8 7 8 6 4 4 4 5 7 7 7 8 13 15 15 17 19 20 18 15 16 20 21 16 12 17 23 24 24 28
8 9 7 6 6 7 7 6 5 5 7 7 7 8 9 9 9 10 13 14 13 14 15 15 16 17 15 14 14 18 21 24
9 10 8 5 5 6 7 7 5 6 8 10 10 8 9 11 13 14 13 14 14 15 16 17 18 18 17 18 20 20 21 23
9 13 11 8 5 4 6 5 5 5 7 8 8 8 9 12 13 13 11 12 15 16 20 22 21 20 19 21 23 22 21 25
7 11 12 10 9 6 6 5 5 5 7 10 11 12 12 12 12 10 11 13 15 17 20 23 24 23 21 23 24 24 23 27
8 7 10 11 10 11 12 12 10 8 9 10 13 14 14 15 14 13 16 19 22 24 25 24 25 25 25 26 28 27 28 30
9 8 9 11 13 16 16 14 14 15 14 15 16 18 20 19 19 22 23 22 28 34 32 32 33 27 27 30 30 25 32 30
18 12 12 14 16 14 16 17 18 19 22 24 25 26 26 27 25 25 28 29 34 41 43 42 36 26 25 24 23 29 32 33
16 15 15 15 16 20 18 20 23 25 29 25 27 37 32 27 21 35 30 35 41 29 33 24 29 23 23 23 29 31 34 35
17 16 17 19 20 21 20 18 18 23 25 28 28 28 22 18 27 26 34 29 27 22 18 20 17 22 27 29 32 34 34 34
21 17 14 16 19 19 18 18 21 23 24 26 23 18 21 21 20 17 27 25 20 22 21 21 24 26 30 32 36 35 37 38
26 23 19 19 21 25 27 28 27 27 27 25 22 22 20 21 20 21 22 24 25 25 24 29 31 30 33 36 38 38 40 41
28 27 20 25 24 26 30 29 29 30 30 25 23 22 23 23 24 26 28 29 31 31 31 34 36 36 38 39 39 41 42 43
37 35 34 29 26 31 33 36 37 35 26 22 23 25 24 26 27 29 30 34 34 33 37 40 40 41 41 39 40 42 44 46
36 37 33 29 29 33 32 29 24 27 29 27 27 27 27 27 30 32 34 35 34 38 40 43 44 43 42 42 43 45 47 49

GFSFLT1_500_spd_072.txt.gz
Wind_Speed
10 6 7 9 9 14 15 7 12 18 18 18 22 12 19 19 18 24 27 26 23 25 22 21 17 21 25 28 27 24 24 24
7 7 7 6 8 11 15 3 9 13 21 20 27 23 28 21 21 26 26 27 27 27 23 22 20 26 32 28 25 23 26 25
7 5 5 6 7 6 8 10 6 8 10 14 20 25 27 28 33 26 29 30 29 30 28 26 28 33 33 22 20 22 23 21
5 2 4 5 7 6 5 6 9 9 11 14 16 25 29 32 32 29 29 30 29 28 26 30 32 31 22 19 21 22 18 19
8 7 6 8 7 7 4 1 4 5 6 8 8 10 14 20 24 23 22 21 22 24 23 22 21 22 21 21 20 20 23 25
9 9 7 7 6 6 5 5 2 2 2 4 6 10 11 15 15 15 13 14 16 17 18 21 20 21 20 18 19 23 24 24
10 10 9 6 7 8 6 5 5 5 3 2 3 6 10 12 13 13 14 14 14 16 18 18 21 23 23 22 20 22 22 24
10 11 13 10 7 8 8 6 4 4 4 3 4 5 6 9 12 14 14 14 16 20 21 23 23 25 24 25 24 24 24 25
12 12 14 12 9 8 6 7 6 6 6 8 7 8 7 7 9 12 14 15 17 17 18 19 20 23 25 25 25 24 25 28
14 12 13 16 13 12 12 10 10 11 13 11 11 11 12 13 12 14 13 13 14 14 16 17 21 23 27 29 28 27 33 32
15 11 12 14 15 17 16 14 15 16 15 15 16 17 18 18 17 17 19 19 19 19 21 23 28 33 36 34 32 32 31 37
21 18 15 16 15 15 15 16 19 21 19 20 20 21 24 24 24 22 22 24 27 28 25 32 34 39 44 47 36 36 36 35
24 25 21 18 17 18 19 20 21 26 27 25 25 26 24 27 29 33 26 25 36 33 35 36 40 49 44 45 37 39 31 32
26 23 26 20 19 22 22 22 24 24 23 22 21 18 20 24 21 17 25 27 21 35 28 27 24 23 21 35 29 29 32 36
24 21 25 23 23 21 23 22 22 22 22 20 21 21 23 22 19 18 19 23 17 31 35 27 30 23 24 25 28 31 38 40
24 26 25 26 27 24 26 26 27 29 28 26 21 24 25 22 22 22 21 21 20 21 20 22 24 25 28 31 33 37 39 39
29 30 29 28 30 30 26 28 33 35 34 31 28 27 26 23 23 25 23 22 23 25 25 27 27 30 32 35 37 39 42 43
34 30 28 27 32 32 33 31 36 38 35 37 37 35 27 25 28 28 25 26 26 27 29 31 33 37 38 39 41 42 46 47
28 31 28 31 34 38 30 31 35 37 35 32 31 30 28 29 30 30 29 30 30 31 33 37 38 40 40 43 45 48 51 49

GFSFLT1_500_spd_075.txt.gz
Wind_Speed
15 12 11 12 9 8 13 14 14 8 12 17 21 19 21 19 20 19 15 18 21 18 18 18 22 22 22 22 21 22 26 26
11 9 8 9 7 8 12 9 6 7 14 14 11 18 22 23 17 17 18 19 20 22 23 21 20 23 17 22 24 26 26 23
10 9 6 5 5 8 10 8 4 9 13 16 19 19 23 23 26 21 20 23 25 23 24 23 21 25 23 25 25 31 25 22
9 10 6 5 6 6 7 6 7 2 7 13 17 24 30 28 29 24 23 26 29 29 28 30 27 27 26 27 28 25 21 22
8 9 7 4 5 7 6 3 2 3 2 1 5 13 23 29 28 26 27 30 31 32 33 32 30 30 25 25 24 22 20 22
12 7 8 6 3 4 5 5 1 1 1 3 5 4 7 25 25 25 24 21 22 31 28 27 27 28 25 25 22 22 24 24
11 9 11 9 5 6 7 6 5 1 3 2 3 2 5 9 13 13 12 12 11 11 12 16 17 20 22 24 26 27 26 26
14 14 12 12 9 6 10 9 7 4 3 4 5 5 7 9 9 10 13 12 13 15 17 17 19 23 25 28 26 27 28 26
22 21 17 12 11 8 8 8 8 6 6 5 5 6 7 8 9 11 13 13 16 16 17 17 20 21 23 22 23 26 26 26
20 17 17 14 13 14 13 13 11 12 12 11 10 7 6 7 8 9 11 15 17 17 17 19 21 22 22 23 26 28 29 31
20 16 19 15 15 16 17 16 16 17 16 15 14 13 13 11 10 11 14 17 19 20 22 23 23 25 23 25 28 30 31 33
26 23 22 20 17 16 16 16 16 18 18 19 19 18 18 18 17 20 19 21 25 26 27 26 27 26 31 37 34 36 33 39
25 27 26 25 23 23 20 19 18 17 20 23 21 24 22 22 23 20 19 22 26 29 32 33 34 33 31 33 39 45 47 54
25 27 28 27 27 28 28 23 22 23 24 25 22 20 15 19 20 22 24 21 24 29 26 30 35 39 35 37 34 31 38 41
32 29 26 27 26 28 27 27 29 27 25 23 21 18 21 23 22 21 20 22 20 21 29 29 24 36 39 39 27 28 27 33
32 32 30 30 30 30 28 26 26 28 27 26 26 28 28 27 23 26 26 26 25 24 24 23 22 32 31 32 33 33 32 34
30 30 33 34 33 32 31 31 30 31 29 30 33 33 33 32 30 28 29 28 26 28 27 25 26 25 28 32 33 32 35 38
30 30 34 34 37 35 36 37 38 37 37 37 38 37 33 34 34 32 30 30 29 30 31 31 30 30 31 33 35 39 40 41
32 30 29 26 35 39 36 38 38 38 32 32 35 33 33 28 28 30 30 31 31 30 31 32 33 32 34 37 40 44 46 46

GFSFLT1_500_spd_078.txt.gz
Wind_Speed
18 16 14 11 10 11 14 17 19 18 16 16 21 21 19 17 12 14 27 24 27 18 18 24 22 21 23 36 31 26 26 24
18 15 11 8 9 7 6 11 11 9 14 13 18 20 15 13 14 19 16 13 19 20 15 16 14 16 19 23 27 27 26 26
17 15 8 5 5 2 5 8 4 7 8 12 13 11 15 18 20 15 19 15 12 14 13 17 16 18 19 23 25 26 26 26
16 14 7 5 4 3 5 6 4 5 14 13 19 20 16 18 20 17 14 13 15 16 19 20 19 22 22 26 26 26 28 24
16 15 8 5 5 4 3 4 4 2 2 4 7 16 20 21 22 18 18 21 17 19 23 25 25 24 24 27 27 27 27 24
17 15 12 7 6 5 3 3 2 2 2 1 1 3 10 21 28 25 23 22 21 23 29 31 31 29 28 29 30 27 25 24
15 11 15 12 9 8 7 6 5 4 3 2 1 1 3 4 16 19 20 25 24 23 22 25 25 24 24 25 26 23 21 24
15 13 18 17 12 10 10 9 7 5 3 3 3 3 4 4 6 7 6 10 14 15 15 15 15 14 15 18 18 18 25 24
19 18 18 22 13 12 11 7 6 5 4 2 4 5 6 8 10 12 12 11 13 14 14 14 13 12 14 16 20 22 25 27
18 18 14 16 14 15 15 12 10 9 10 8 6 6 6 7 8 9 10 14 16 17 17 18 19 19 18 19 19 22 28 28
18 18 15 16 17 17 15 16 14 14 15 15 13 10 10 9 11 13 14 16 16 17 19 21 23 22 21 23 24 26 27 28
24 22 22 19 18 18 15 14 16 15 16 16 15 14 14 13 13 14 14 13 18 20 23 24 24 26 27 28 28 30 32 36
27 25 23 25 23 21 18 17 18 20 20 20 18 19 20 21 19 19 19 17 18 19 22 27 30 31 31 31 35 36 40 38
26 28 28 28 28 27 27 24 23 23 22 22 23 21 22 21 20 18 18 20 22 23 23 25 33 35 34 36 42 43 44 45
26 26 26 28 28 30 29 27 28 27 25 25 25 24 22 23 23 23 23 23 25 25 25 25 24 33 34 38 41 44 42 39
33 32 32 33 34 30 31 31 30 30 28 24 22 25 25 25 28 29 29 28 26 30 29 27 27 27 30 35 32 38 38 37
35 34 34 36 35 35 38 38 36 33 29 27 27 27 28 28 31 36 37 35 33 31 31 31 31 29 29 30 32 31 34 35
34 37 36 35 35 35 36 38 41 40 37 35 33 34 37 39 40 38 37 37 37 34 33 34 32 32 31 32 34 34 36 38
38 36 38 37 36 36 41 42 43 44 44 41 38 39 40 39 38 33 34 34 33 34 33 33 34 35 35 37 37 37 39 40

GFSFLT1_500_spd_081.txt.gz
Wind_Speed
11 12 15 17 16 13 14 16 21 24 23 21 22 18 20 17 23 12 22 38 39 38 42 34 33 37 38 33 35 43 39 42
13 12 14 14 12 13 13 16 20 19 14 16 18 13 16 14 21 15 11 24 27 26 24 24 23 24 26 28 33 33 34 31
14 12 12 14 10 8 10 11 11 8 8 11 13 12 14 15 17 13 15 10 14 19 17 15 17 15 16 22 20 24 27 26
12 11 13 14 10 7 8 9 8 8 10 11 9 11 8 11 14 16 19 15 14 12 15 11 10 14 18 19 21 22 22 25
12 9 12 13 11 8 7 7 7 7 8 8 11 12 15 17 17 16 15 12 10 11 13 13 14 16 15 17 18 23 23 24
12 9 11 11 12 10 9 8 6 7 8 9 8 7 2 6 15 20 19 16 15 17 16 17 18 21 22 21 20 20 23 26
12 9 9 8 8 10 10 12 10 6 6 7 9 8 7 3 7 17 21 20 18 20 20 19 20 19 23 23 21 21 22 18
13 12 14 13 14 11 10 10 12 10 6 6 7 7 7 6 2 6 9 11 13 11 10 14 14 17 21 19 17 20 16 16
16 17 15 18 17 13 11 9 6 7 7 4 6 8 7 6 4 2 7 9 8 8 9 10 11 10 11 12 18 18 18 20
18 16 16 17 16 14 10 11 10 9 9 10 10 10 9 8 7 7 8 12 14 14 12 13 14 14 15 14 16 16 17 18
19 17 17 16 15 13 12 11 11 9 11 11 11 13 11 9 11 11 12 14 14 16 16 18 19 20 20 20 21 21 22 21
23 22 19 18 17 17 16 14 13 12 11 12 12 11 12 13 14 14 15 13 14 16 18 22 22 22 24 25 24 25 26 26
26 26 24 22 21 22 21 19 19 16 17 15 15 15 12 15 18 19 20 18 16 18 18 20 21 24 28 28 29 29 30 31
26 27 28 28 27 26 24 23 24 25 23 22 21 19 16 18 20 21 18 18 19 18 19 19 23 24 26 33 35 35 33 36
27 28 30 30 30 27 26 26 27 28 27 26 23 24 23 21 21 21 21 23 24 24 23 23 22 25 27 27 30 37 36 42
30 31 31 31 29 29 27 26 26 30 31 30 29 29 29 26 24 24 26 28 29 32 32 31 29 28 28 27 29 29 38 34
37 36 37 37 36 35 35 34 34 36 35 34 34 33 31 29 29 30 30 31 33 39 40 37 36 33 30 31 33 33 35 33
33 35 40 42 40 40 41 38 39 38 37 36 35 34 33 32 35 36 38 39 42 42 40 41 40 38 34 33 36 38 37 35
34 38 37 41 43 43 42 41 40 39 40 39 38 36 37 37 38 38 39 41 41 40 39 40 41 40 37 33 38 41 39 38

GFSFLT1_500_spd_084.txt.gz
Wind_Speed
23 16 12 10 13 16 18 20 20 23 22 19 23 25 22 27 23 25 18 28 20 24 28 28 40 37 41 40 38 39 39 43
20 17 12 8 11 15 18 17 18 22 21 13 14 16 18 21 16 27 24 25 22 16 23 27 33 37 34 38 38 39 34 34
18 18 12 7 11 13 14 14 16 19 16 8 8 12 13 16 14 5 16 15 19 23 33 35 36 33 32 32 34 30 21 26
18 16 12 6 8 11 13 12 14 16 16 12 6 7 5 5 9 7 11 14 15 21 27 28 29 26 24 20 18 16 23 28
19 15 12 6 7 9 12 13 14 12 12 13 10 8 9 12 13 12 10 17 12 14 18 14 11 13 7 7 10 16 20 24
19 16 14 7 7 8 8 11 12 13 10 9 9 7 5 5 11 18 14 14 12 10 9 4 7 8 9 9 12 13 12 16
18 14 15 10 6 5 8 9 12 12 10 8 8 8 7 4 5 14 18 17 12 15 13 14 12 14 13 15 15 16 18 20
18 14 19 15 10 8 7 8 10 10 9 7 6 7 8 7 6 5 17 19 20 18 18 19 19 18 18 17 16 19 21 19
20 15 23 19 15 14 13 9 8 8 8 6 6 7 8 8 6 1 5 11 14 14 13 14 13 12 14 19 22 22 22 21
19 19 22 22 17 15 11 9 8 8 9 11 12 12 9 6 6 5 2 5 7 9 10 11 13 14 16 17 16 17 20 20
21 20 20 21 18 15 13 11 10 9 10 10 9 9 10 10 10 9 8 8 8 9 11 13 14 13 14 14 15 17 17 18
22 21 22 24 20 16 15 13 13 13 13 12 11 11 10 12 13 12 13 13 12 12 13 15 14 16 17 15 19 20 20 22
22 23 25 26 25 21 19 18 16 16 17 16 15 15 14 14 14 15 15 13 15 17 16 15 17 16 17 17 21 24 23 24
27 25 26 27 27 26 23 20 21 22 21 21 18 18 18 19 20 19 18 18 16 16 16 17 17 18 18 20 22 23 26 31
24 25 26 28 27 27 27 27 26 27 26 25 24 22 21 21 23 23 22 19 20 20 21 21 21 21 21 22 24 27 28 29
28 33 32 30 29 29 29 28 27 27 27 26 25 26 27 26 24 26 27 24 24 25 26 26 26 27 29 29 28 29 32 33
33 38 38 33 33 30 31 30 29 30 30 30 30 29 29 30 32 29 28 27 27 29 29 31 34 36 34 34 35 34 35 35
26 25 25 33 39 40 36 37 37 37 35 35 35 34 33 33 32 33 31 31 32 32 34 36 38 41 37 35 38 41 40 39
31 33 31 33 32 32 36 40 43 42 41 40 38 37 35 33 34 32 34 36 36 37 36 38 39 40 38 37 39 43 44 42

GFSFLT1_500_spd_087.txt.gz
Wind_Speed
19 17 20 16 13 11 11 12 15 16 17 17 17 20 22 23 23 25 26 29 29 24 28 33 36 37 40 36 38 38 43 37
12 17 18 15 12 10 7 11 13 13 18 17 13 16 17 17 20 20 22 25 29 22 20 25 38 44 44 43 47 38 35 39
12 12 16 13 10 8 6 8 11 13 14 17 9 8 8 9 11 12 16 25 26 22 25 30 29 39 47 35 37 28 35 35
17 9 15 13 10 9 6 7 9 11 12 13 7 6 6 6 9 14 17 23 25 14 21 25 31 34 26 28 32 37 38 37
19 9 16 15 12 11 7 7 8 9 12 12 9 5 4 4 8 13 11 11 12 11 20 29 30 33 35 36 34 36 33 27
20 11 16 15 15 12 8 5 7 8 9 11 10 7 6 6 5 9 10 9 11 9 11 14 15 21 21 13 16 18 16 13
17 12 15 15 17 12 8 5 6 7 7 8 10 9 7 8 7 7 11 10 8 10 10 9 5 9 11 11 14 16 17 15
17 12 15 17 17 16 11 7 6 7 4 4 4 6 8 7 7 6 8 15 16 13 14 18 17 19 21 22 22 21 19 19
18 14 14 18 18 21 16 12 10 7 4 4 2 5 6 7 5 4 4 9 15 17 18 19 21 20 23 23 23 23 23 22
22 18 16 18 17 21 21 13 13 10 8 8 8 6 5 4 5 3 1 3 5 6 8 10 11 14 16 16 16 18 19 21
29 22 18 20 18 21 20 16 16 13 12 11 8 6 5 4 3 3 4 4 5 7 8 9 11 12 13 14 14 15 16 15
28 25 19 22 22 21 21 18 18 16 16 15 11 9 7 7 7 6 5 5 7 8 8 9 10 13 14 16 17 17 17 19
32 29 22 24 24 24 24 21 20 19 19 18 17 14 12 10 12 11 10 9 9 10 11 11 11 14 14 15 17 19 17 18
27 30 28 26 29 29 27 26 24 23 21 21 21 20 18 16 16 16 15 14 14 14 13 14 13 13 13 15 16 18 20 20
30 27 30 30 31 31 30 30 29 27 21 23 25 26 25 24 21 19 18 19 17 17 18 18 17 17 17 18 19 21 23 24
31 29 30 28 25 28 29 29 29 30 30 27 28 30 30 27 25 25 24 22 22 22 22 20 21 22 23 24 27 28 29 30
29 33 35 28 31 31 27 28 29 31 31 30 29 29 27 26 26 27 28 27 26 25 26 26 25 25 27 30 32 34 35 37
34 34 33 32 32 33 30 32 31 31 30 31 33 34 34 33 33 32 31 32 31 28 31 30 30 29 29 31 34 36 36 36
34 33 29 28 27 29 31 31 34 33 33 38 39 41 41 39 38 35 35 35 33 34 35 37 37 32 33 34 35 38 36 35

GFSFLT1_500_spd_090.txt.gz
Wind_Speed
22 17 21 16 17 18 17 14 12 10 10 11 14 14 17 18 21 22 22 22 25 26 28 30 29 32 31 36 36 38 38 34
17 17 21 15 15 16 14 12 10 9 10 12 14 12 14 16 18 20 22 24 26 26 27 27 26 29 29 33 36 39 39 36
20 16 17 14 12 15 12 12 10 8 11 12 14 11 8 7 11 13 15 18 22 27 28 28 24 22 25 32 33 40 36 39
21 12 12 13 13 15 13 13 11 9 10 11 10 11 8 5 6 7 12 16 19 21 22 25 28 22 23 24 36 38 39 43
15 8 10 15 13 15 15 13 11 11 11 10 8 9 7 5 7 11 12 15 16 19 23 26 19 20 20 30 35 35 34 31
13 9 11 15 13 15 16 14 13 10 10 10 8 8 8 6 9 11 12 17 13 16 22 24 30 34 27 32 35 30 34 35
15 13 11 16 15 15 16 14 14 9 10 9 8 7 7 7 9 10 9 14 10 11 11 14 24 26 27 31 29 26 26 29
18 13 12 17 16 17 17 14 12 11 10 8 8 5 4 5 7 10 9 6 9 5 11 11 10 13 15 17 17 17 18 22
17 14 16 16 18 18 20 18 15 15 13 11 9 8 6 3 3 5 9 4 5 10 11 11 9 14 15 18 19 21 21 24
19 18 17 19 22 20 20 22 19 19 17 15 12 11 8 5 4 2 2 4 1 3 6 7 9 10 12 17 22 22 25 26
23 21 19 17 23 22 23 21 21 20 20 20 15 13 9 7 4 4 4 3 3 5 6 7 8 10 10 11 13 16 15 17
29 21 19 21 24 24 24 22 22 22 22 22 19 15 14 11 10 8 7 6 7 8 9 10 11 12 12 12 15 17 18 18
31 27 26 25 27 27 29 27 24 24 24 23 22 20 18 16 13 12 10 9 10 11 12 16 15 15 14 15 15 17 19 21
33 30 28 31 33 32 32 31 26 26 26 24 23 23 22 21 19 17 16 16 16 14 15 16 17 18 17 18 18 18 18 21
36 31 29 24 31 34 34 34 32 31 29 27 26 25 26 26 24 22 22 20 18 19 18 19 17 17 19 20 21 21 20 20
38 33 30 24 24 31 35 34 34 34 35 33 29 30 30 31 30 29 28 26 25 24 22 22 24 23 22 24 25 27 28 29
37 32 33 27 28 27 29 24 29 33 28 28 33 34 34 33 34 33 31 30 30 30 28 27 28 29 27 29 30 31 32 31
38 36 37 32 29 29 30 34 31 28 28 31 32 33 34 35 36 35 32 33 35 34 34 34 32 33 33 34 34 35 36 35
41 44 35 31 31 34 38 38 36 37 36 37 37 39 37 37 36 37 37 38 39 39 39 37 37 36 36 38 40 42 42 39

GFSFLT1_500_spd_093.txt.gz
Wind_Speed
29 26 27 26 19 21 23 20 15 18 15 15 14 18 18 21 25 23 21 19 18 18 17 21 23 24 25 24 26 30 28 32
34 29 26 23 21 22 23 18 15 17 14 13 13 16 16 15 19 22 22 23 24 23 24 21 31 32 27 29 30 29 34 34
33 30 24 21 22 21 21 16 16 17 15 15 13 13 14 13 14 16 20 22 24 25 25 33 33 32 27 28 33 32 37 35
35 30 24 23 22 20 19 16 17 16 16 17 15 12 11 11 13 11 14 17 20 19 27 32 40 29 32 29 23 29 35 34
32 29 23 21 22 19 19 16 18 17 16 15 15 13 10 11 12 11 14 15 19 20 24 28 34 32 29 36 37 33 33 31
33 26 20 23 22 18 19 17 18 17 16 14 15 13 12 11 11 12 13 14 17 19 18 24 27 28 32 25 21 24 28 29
33 27 26 25 22 18 19 17 19 18 16 13 13 12 12 12 12 12 12 11 16 14 14 20 27 36 34 33 31 30 29 33
29 28 23 22 21 20 18 17 19 18 17 14 13 10 11 11 11 11 11 10 10 4 10 12 21 35 25 24 32 38 36 34
27 26 24 24 21 21 20 19 21 20 17 16 15 11 10 13 14 12 8 6 5 11 8 7 6 6 12 17 21 24 20 19
24 27 27 23 20 21 21 19 23 23 20 19 18 15 12 11 12 13 10 5 1 4 6 6 7 7 8 12 15 19 19 20
29 27 28 24 21 23 23 22 21 26 23 22 21 18 16 11 11 10 11 10 7 3 2 4 6 7 9 10 11 12 11 14
31 30 30 27 25 25 25 24 22 25 25 24 24 20 18 17 14 12 13 12 11 11 8 8 10 10 10 12 13 14 14 17
36 34 29 27 27 28 31 26 24 27 25 24 25 23 22 20 19 16 15 13 12 13 14 15 15 14 14 15 17 17 18 19
41 35 32 29 31 31 34 29 29 28 27 26 26 25 25 24 23 22 20 18 18 18 18 19 18 17 20 21 21 21 22 22
42 37 36 36 35 34 34 33 31 30 29 28 28 28 29 29 28 26 26 24 22 22 22 23 23 20 20 22 25 26 27 28
42 37 39 37 34 35 35 36 34 35 34 32 30 31 33 34 32 31 32 31 29 28 27 26 25 25 25 25 26 28 30 31
36 37 38 35 33 33 28 27 30 43 44 36 36 34 32 33 35 35 34 36 36 35 33 32 32 29 28 31 34 35 35 35
43 45 41 37 34 31 28 28 30 27 27 28 35 36 37 34 36 37 37 37 37 36 37 37 34 34 35 36 37 39 41 41
41 45 43 38 38 34 34 35 34 31 31 33 34 33 36 39 39 39 39 39 37 35 37 35 40 41 40 41 42 46 47 46

GFSFLT1_500_spd_096.txt.gz
Wind_Speed
41 38 36 31 30 32 27 24 24 21 20 16 17 16 16 20 22 22 18 19 22 18 16 11 24 36 27 25 19 23 24 27
40 37 38 33 31 33 29 25 25 20 19 17 16 16 16 17 18 19 17 18 22 22 19 15 22 13 22 22 22 24 26 29
38 38 35 33 33 36 31 26 24 19 18 17 17 17 17 15 15 19 18 16 19 24 22 21 20 25 28 23 21 25 26 31
39 35 33 33 34 36 31 27 23 19 18 17 16 17 17 16 14 14 17 15 15 20 22 23 29 34 32 32 28 27 23 32
41 36 38 32 32 36 34 27 22 20 18 17 15 15 15 15 14 12 12 15 15 18 22 27 28 33 34 35 36 33 25 23
42 39 37 34 31 35 35 28 22 20 19 17 15 15 15 15 13 12 11 12 13 17 21 24 24 31 38 32 30 30 31 31
39 40 42 37 38 36 34 27 23 20 19 17 15 14 16 14 11 10 13 11 12 15 20 23 24 26 36 41 35 28 21 25
38 40 34 36 38 34 32 28 23 20 18 18 17 13 15 14 12 10 11 12 12 12 13 18 17 24 30 30 28 30 35 27
37 39 38 37 33 33 32 30 22 20 19 19 19 15 15 13 13 13 11 11 10 11 12 5 5 5 28 31 27 28 29 31
32 34 33 34 29 32 32 29 24 22 22 21 21 18 16 15 12 11 10 10 8 7 13 13 9 7 6 6 11 19 20 18
29 37 34 33 31 32 31 28 24 20 25 23 24 22 20 18 15 12 10 8 8 8 6 6 7 8 9 10 12 12 14 18
33 34 35 32 34 33 33 29 25 22 24 26 27 25 21 21 18 16 13 11 10 9 10 10 9 9 8 8 9 11 14 18
40 39 35 32 36 38 34 31 28 25 24 25 26 27 23 23 23 21 19 16 13 12 13 13 12 12 12 13 13 15 16 17
34 39 38 34 37 38 36 33 31 26 26 26 27 26 25 26 26 25 24 22 19 17 16 16 16 17 18 18 18 19 20 20
41 43 40 38 37 39 37 32 30 28 27 25 28 28 27 27 28 27 26 25 26 24 23 22 21 20 20 23 23 23 24 25
47 41 44 40 40 38 36 34 33 34 33 31 31 29 28 28 29 29 28 27 29 29 28 28 27 25 27 28 27 26 28 29
35 43 48 44 43 38 38 34 33 32 31 33 33 31 31 33 34 32 32 33 33 33 32 32 32 32 32 34 34 34 34 34
35 43 45 47 42 40 37 38 35 30 27 22 24 25 31 40 38 38 37 38 37 36 37 37 36 38 38 38 39 39 40 39
40 47 53 49 42 45 45 37 32 31 30 29 28 27 28 28 33 37 40 39 38 38 40 40 37 34 36 37 37 40 42 44

GFSFLT1_500_spd_099.txt.gz
Wind_Speed
43 38 36 36 28 32 33 30 30 25 30 26 16 15 15 17 19 21 20 18 20 18 17 15 7 33 34 37 44 35 31 33
46 41 39 39 31 31 35 32 31 26 31 26 18 16 17 17 18 19 18 15 19 16 18 15 15 18 37 36 36 33 33 33
44 39 38 41 35 33 38 34 31 28 30 29 20 16 18 16 17 18 18 16 16 17 17 18 16 14 30 38 38 33 32 32
41 39 39 43 37 34 34 36 34 29 30 29 21 17 16 15 16 16 15 15 15 15 15 19 21 18 19 19 19 20 20 21
36 38 41 40 35 36 36 37 35 32 29 27 22 18 15 13 14 15 15 12 11 13 15 19 21 22 23 27 26 30 21 17
39 38 38 37 38 38 37 39 38 32 30 26 22 19 15 13 13 13 15 12 11 10 11 17 23 30 24 24 28 32 27 26
41 38 39 41 40 39 38 38 37 31 30 26 21 20 15 13 12 11 13 11 12 12 14 16 19 21 23 28 32 34 30 29
38 36 38 40 39 38 36 38 35 32 30 27 23 21 16 13 12 10 12 10 11 13 15 17 18 21 25 29 27 34 33 30
35 33 35 40 40 38 34 37 37 35 30 28 24 21 19 14 13 11 10 10 8 7 10 13 11 15 15 23 31 33 32 35
32 37 35 38 38 36 34 38 38 38 29 28 25 22 20 17 15 13 11 8 7 5 3 11 14 12 8 10 23 28 31 29
31 32 39 39 34 34 38 40 39 38 29 29 27 25 22 20 18 15 14 10 7 9 7 5 7 7 6 8 10 14 13 16
25 29 38 40 36 41 34 39 39 31 29 30 29 29 25 23 21 19 17 15 12 9 10 10 9 7 7 7 8 9 14 15
28 30 32 34 42 39 34 40 36 32 29 29 28 27 27 26 24 22 20 18 17 15 11 9 10 10 11 11 12 13 14 15
30 32 34 43 42 39 40 39 37 33 31 29 28 25 27 28 25 24 23 21 20 19 18 15 13 13 14 15 17 17 17 18
34 34 41 44 42 42 42 42 39 35 31 28 29 28 27 28 26 25 25 24 24 23 23 22 21 20 20 20 20 19 18 20
38 39 41 45 43 40 38 41 40 36 33 35 30 29 30 29 29 27 26 26 26 26 26 27 26 25 26 27 27 27 26 25
31 40 41 43 38 39 39 42 42 41 37 35 29 35 34 35 32 30 28 27 29 28 28 29 30 30 30 31 32 33 32 31
22 43 48 46 49 47 46 43 42 40 36 34 27 30 30 30 29 31 32 30 29 30 31 32 32 31 32 32 33 35 36 37
33 26 34 45 44 46 47 47 47 43 39 36 29 24 21 24 25 25 27 31 33 31 31 33 33 32 32 35 36 37 36 35

GFSFLT1_500_spd_102.txt.gz
Wind_Speed
46 43 40 40 38 40 40 38 36 29 27 27 27 26 24 21 20 21 21 23 21 20 19 18 17 19 29 36 33 46 41 50
49 48 47 46 43 40 40 39 39 34 28 28 27 26 24 21 21 23 22 22 21 18 18 16 17 18 22 33 39 31 39 42
49 48 48 48 46 43 42 42 41 37 30 29 28 27 25 21 22 22 22 19 19 15 15 16 15 16 7 36 36 35 43 40
48 47 46 47 47 45 41 43 42 39 33 30 29 27 26 21 22 20 21 18 17 15 13 14 14 13 13 19 31 38 46 40
43 43 45 45 43 45 44 43 46 42 34 31 30 28 25 23 22 17 19 17 16 14 12 12 15 16 17 14 21 32 42 41
38 40 43 45 46 44 45 44 47 42 35 33 30 29 27 24 22 17 17 15 16 15 13 11 12 15 19 21 17 19 22 24
40 41 42 45 46 42 45 43 45 40 36 33 30 29 28 25 21 18 14 15 15 16 16 14 15 16 19 21 20 18 23 29
39 42 45 45 45 44 41 43 42 39 35 34 31 29 29 27 21 17 13 15 14 16 17 18 17 15 16 17 25 24 24 29
38 39 40 42 41 41 41 40 43 36 34 33 31 29 31 28 22 17 12 13 14 15 14 15 13 11 15 18 20 30 33 30
31 31 35 35 35 36 39 43 38 38 31 31 33 31 31 29 24 19 13 11 11 13 10 10 11 11 12 14 13 21 27 26
24 29 34 33 36 37 41 42 41 33 31 34 35 31 31 29 26 21 16 13 11 10 9 9 9 11 13 15 13 9 21 20
26 29 33 38 38 41 43 43 44 33 33 37 34 29 31 30 29 23 20 17 14 10 11 11 10 8 9 10 11 12 11 15
30 33 36 40 41 41 44 53 39 35 36 39 35 29 31 31 31 27 22 20 17 16 12 12 13 13 12 11 11 11 11 12
26 32 33 38 42 47 50 40 38 40 40 37 32 30 31 28 29 30 28 24 22 20 18 16 14 13 13 14 13 12 12 12
25 31 37 37 43 46 50 41 40 41 39 37 36 33 32 31 29 29 31 28 26 25 23 21 20 18 17 17 16 15 16 16
26 31 36 37 37 38 40 42 36 41 39 39 34 32 34 33 32 31 31 30 30 29 26 25 23 23 24 22 21 21 21 21
24 29 35 34 38 37 41 40 41 43 40 41 39 38 36 37 39 37 32 31 30 30 29 27 27 27 26 25 25 25 25 26
10 25 37 36 41 43 47 50 46 44 44 44 43 40 37 39 32 36 39 36 33 30 29 28 30 28 26 28 28 28 28 27
18 26 39 39 42 46 48 50 49 53 48 45 44 39 39 37 30 38 25 27 29 33 33 32 31 29 29 29 30 31 31 33

GFSFLT1_500_spd_105.txt.gz
Wind_Speed
45 45 44 44 43 41 40 42 42 42 43 39 33 30 27 26 25 25 24 25 24 24 23 23 22 25 24 30 31 39 39 38
46 48 47 48 46 43 40 42 41 44 45 43 37 32 28 27 25 26 26 26 26 25 23 22 21 23 24 27 34 42 37 33
48 48 48 48 47 45 42 40 41 44 46 46 42 36 28 28 26 26 27 26 27 22 22 20 19 21 22 23 28 43 37 47
49 49 49 49 47 48 46 43 40 42 43 47 47 40 30 27 26 25 27 26 26 21 21 19 19 18 20 21 24 36 39 42
49 48 48 49 49 48 46 47 41 42 41 45 47 42 33 28 26 26 28 27 26 21 20 18 18 16 17 16 8 34 31 33
46 46 47 47 45 45 43 45 43 43 40 44 47 40 35 28 26 26 27 26 26 20 20 18 17 16 16 18 13 9 23 32
43 44 44 43 43 43 42 42 42 42 40 44 46 38 38 28 27 25 26 26 25 21 19 18 19 17 16 16 15 15 11 10
44 42 41 42 41 43 44 40 41 41 38 44 45 39 39 28 27 23 26 25 23 21 20 18 19 19 17 17 17 24 19 18
41 40 41 41 42 44 46 43 43 42 39 44 43 43 36 28 26 23 26 23 21 19 20 17 16 16 15 14 14 20 23 25
37 39 40 39 42 46 45 43 43 44 41 42 43 40 34 28 25 23 27 23 21 17 15 15 13 10 10 9 11 13 17 25
36 36 38 40 40 40 40 41 42 42 39 42 42 39 34 28 23 25 27 25 23 18 13 14 11 11 11 12 14 15 13 21
36 36 35 36 37 39 39 38 41 35 40 41 46 41 30 26 23 25 26 26 24 21 14 14 13 11 10 10 9 10 9 10
37 34 32 36 40 39 35 34 34 37 41 48 49 32 29 27 23 25 26 28 24 24 21 15 13 14 14 14 12 11 9 10
35 32 33 35 34 33 36 35 37 43 50 51 41 32 29 26 26 25 26 29 29 26 25 22 18 15 14 14 14 14 14 14
35 30 31 33 38 40 41 39 42 49 53 51 37 34 34 28 29 26 25 28 30 30 29 27 25 23 21 19 17 15 13 13
33 31 29 32 36 42 45 43 47 55 54 47 38 40 38 32 29 30 30 30 30 32 32 30 29 28 26 23 21 20 19 18
25 28 36 36 36 41 44 45 48 51 51 42 43 44 40 36 35 34 34 34 34 34 34 34 33 31 28 26 24 24 24 24
25 25 22 38 37 44 44 48 50 51 51 41 47 44 40 37 37 36 37 36 35 42 40 36 35 31 29 28 28 28 28 29
20 17 6 30 32 41 43 43 43 42 45 46 43 42 42 42 42 40 42 39 39 44 49 42 37 33 33 33 33 33 33 34

GFSFLT1_500_spd_108.txt.gz
Wind_Speed
48 46 45 45 42 40 41 40 29 36 40 42 42 39 36 32 32 32 29 26 26 28 26 26 27 25 26 27 27 28 32 26
45 47 45 43 42 42 46 41 33 33 38 41 42 41 39 35 34 34 32 28 26 28 27 27 25 25 26 27 26 30 35 34
44 46 45 43 44 46 47 40 36 32 37 41 44 44 40 39 33 36 34 31 27 27 26 27 24 24 25 26 25 31 28 35
46 44 44 48 48 48 47 45 38 35 36 41 45 45 40 41 34 33 35 33 27 27 25 27 25 23 23 25 22 26 26 38
48 47 48 49 48 47 47 46 46 39 38 39 43 41 41 42 38 29 33 32 27 27 25 27 24 23 22 20 21 24 21 41
47 48 48 48 49 49 48 49 44 42 35 36 40 41 42 42 40 29 34 29 27 26 27 25 23 22 19 21 22 24 15 34
52 50 49 48 46 47 47 48 48 41 38 35 37 39 41 41 39 29 33 30 25 25 27 26 23 22 20 19 19 18 12 10
46 44 44 44 42 43 44 46 48 44 37 35 37 38 40 41 37 29 32 29 25 24 26 26 23 23 19 19 19 18 18 10
46 45 44 43 43 42 44 45 46 45 38 37 36 40 38 40 33 30 32 27 26 23 25 23 22 21 18 17 19 16 19 20
39 41 42 41 41 42 44 45 45 46 42 40 37 38 38 40 28 32 33 25 26 23 25 21 20 16 14 12 13 13 14 18
36 37 37 39 40 41 41 43 46 46 45 42 39 38 37 35 31 32 31 24 25 25 26 20 20 15 13 14 15 15 14 14
32 35 35 37 37 38 38 38 38 41 42 34 36 35 36 34 32 36 27 26 24 26 26 22 20 18 13 13 13 12 12 13
31 32 33 34 35 36 33 32 32 34 32 35 36 35 37 36 38 41 22 25 25 25 26 23 22 20 17 15 14 14 12 12
28 29 32 31 31 34 32 33 32 29 32 34 37 37 39 41 44 34 22 24 25 27 27 24 24 24 20 16 16 16 16 16
27 29 31 30 28 31 33 34 32 33 35 35 36 40 43 47 45 30 27 26 25 29 30 29 27 26 26 22 18 17 17 18
25 28 31 33 28 29 31 34 34 35 36 38 40 43 47 48 41 30 26 27 27 28 29 32 32 30 29 27 24 22 22 22
24 27 29 30 30 31 33 36 40 40 40 42 45 49 51 51 41 36 38 36 32 33 31 30 32 31 31 31 31 31 31 31
22 24 23 26 30 31 38 38 41 45 46 46 43 45 51 47 40 39 41 39 38 36 34 30 30 32 34 35 36 37 37 36
14 15 19 18 17 26 40 36 40 45 47 48 48 48 46 50 43 43 42 38 42 40 37 34 34 41 41 39 41 41 39 38

GFSFLT1_500_spd_111.txt.gz
Wind_Speed
49 47 46 45 43 43 43 42 37 38 30 34 37 35 32 32 36 32 31 32 31 30 30 27 26 28 28 26 28 27 27 26
46 46 42 40 41 42 42 41 37 37 29 31 40 37 35 33 36 33 32 32 31 30 30 27 27 27 27 26 29 28 28 27
45 43 44 39 39 37 41 39 39 38 32 32 42 40 39 36 36 35 32 33 30 30 28 28 27 26 28 28 29 29 29 29
42 42 45 45 40 38 40 40 37 39 38 31 37 40 40 38 35 39 37 33 28 28 27 28 27 26 28 27 29 27 26 27
46 49 47 46 47 45 41 41 44 44 41 33 37 41 39 37 37 41 39 33 28 25 26 27 27 26 27 27 28 24 21 23
53 47 45 45 45 44 44 42 42 42 40 38 37 41 39 38 37 40 39 35 27 24 26 28 27 26 27 26 27 24 22 23
46 44 45 44 43 43 44 44 45 44 43 40 35 38 41 38 37 37 36 34 26 24 26 28 26 26 27 27 25 25 21 21
51 50 47 45 45 42 42 45 46 45 42 38 32 37 41 41 41 37 36 31 25 25 26 29 25 26 27 27 23 26 22 19
43 42 47 46 43 41 42 41 41 41 42 38 30 37 40 41 40 38 38 31 25 25 26 29 26 25 25 24 22 25 21 19
37 40 44 42 40 40 39 40 42 43 43 41 36 37 39 39 38 39 36 31 26 26 27 28 25 24 24 23 20 20 17 17
27 33 38 41 44 44 42 41 41 42 44 45 40 35 40 41 39 39 35 28 26 28 28 29 25 23 23 21 20 17 16 16
32 32 34 37 38 38 39 40 42 42 44 44 40 37 39 41 39 40 35 29 26 31 29 27 26 24 24 20 20 20 20 20
32 33 34 32 34 35 36 38 39 39 40 39 36 34 38 40 41 40 31 31 30 31 30 28 27 24 25 22 21 19 17 15
27 30 32 31 32 34 35 35 32 33 33 34 35 36 38 39 41 37 32 34 34 31 29 28 27 26 26 25 22 22 21 17
25 26 28 31 32 30 28 28 28 29 31 30 32 34 35 39 38 36 38 39 37 35 28 27 29 28 26 26 25 23 23 22
19 20 24 28 30 27 24 22 22 27 28 30 31 29 33 40 38 39 41 40 39 39 32 27 30 32 30 29 28 27 26 24
19 18 19 22 24 23 20 21 24 28 31 32 32 32 35 40 38 39 43 40 40 41 37 32 28 28 30 32 33 32 32 31
15 16 16 15 16 18 18 20 23 29 33 34 36 37 39 40 38 41 42 41 38 39 42 35 31 32 32 31 33 35 34 36
14 12 10 12 14 15 16 16 26 33 35 35 39 41 43 41 40 40 41 44 44 43 41 38 39 37 36 35 33 37 33 41

GFSFLT1_500_spd_117.txt.gz
Wind_Speed
70 72 60 56 47 43 41 41 41 40 39 37 35 32 34 36 34 30 30 30 32 27 25 26 26 27 26 22 21 25 26 28
66 67 59 57 51 46 42 42 41 39 38 37 36 33 34 38 37 34 30 31 32 29 27 28 29 28 28 24 23 25 26 29
64 65 63 62 55 49 44 43 42 35 33 33 36 35 35 38 38 36 27 32 33 32 29 30 30 30 31 27 24 25 26 29
76 75 71 64 56 48 44 43 41 34 32 34 34 35 38 36 32 35 33 33 36 34 34 33 30 31 32 29 27 26 27 28
64 71 67 57 51 48 44 45 41 36 35 35 33 35 38 36 35 35 36 31 37 38 35 32 31 32 32 32 29 28 28 28
63 54 50 51 49 46 43 41 41 38 37 37 37 36 37 39 39 39 35 37 38 41 36 33 33 32 32 32 31 29 29 28
57 52 51 51 52 50 45 41 43 44 41 40 36 38 38 40 39 44 36 38 42 43 41 37 36 34 34 33 32 30 29 29
45 50 50 53 50 47 44 43 43 45 44 40 40 40 42 41 34 30 31 36 39 42 44 42 38 38 36 34 33 32 29 30
43 46 47 49 48 42 42 46 47 44 44 45 43 43 42 39 37 36 41 42 43 39 42 44 39 39 37 36 34 32 30 29
46 46 47 44 42 41 41 42 43 43 46 47 45 43 43 40 40 42 43 42 42 42 42 42 38 40 38 38 35 32 29 30
38 34 38 41 42 40 41 45 47 47 47 48 47 44 43 42 42 42 41 44 45 46 43 40 38 41 38 39 36 33 29 30
34 36 37 35 35 35 38 42 45 46 47 48 48 48 47 44 40 44 45 46 46 47 44 40 39 41 40 40 37 34 30 30
37 34 34 33 32 35 40 39 42 44 44 45 45 46 46 42 39 45 46 46 45 48 46 42 42 42 40 41 38 36 31 31
42 38 39 42 41 38 32 37 40 41 44 48 49 52 53 49 45 45 44 41 43 46 47 46 45 45 42 41 41 37 34 32
35 41 35 28 34 39 37 36 39 41 42 42 43 43 42 43 40 39 38 40 40 42 45 49 51 46 43 44 41 39 35 34
26 22 22 24 27 29 31 32 34 39 40 39 41 43 43 41 39 37 36 37 38 37 36 42 53 52 39 45 42 42 38 37
6 12 19 22 21 22 25 27 30 34 37 37 37 39 41 41 41 41 38 36 36 35 36 43 39 42 40 47 46 44 41 40
6 9 11 12 13 15 16 19 23 28 31 34 34 36 37 39 42 42 40 37 37 39 38 42 33 29 43 48 49 45 42 42
6 8 10 11 13 15 16 17 19 24 26 31 31 34 34 35 35 37 39 37 37 41 41 38 44 40 45 48 49 48 48 43

GFSFLT1_500_spd_120.txt.gz
Wind_Speed
68 70 72 71 68 67 67 52 46 41 43 40 38 35 33 33 34 34 35 34 31 29 29 25 24 25 25 25 24 25 25 25
69 73 75 75 74 72 71 55 48 46 47 46 42 35 34 36 34 36 35 34 35 33 31 26 26 28 27 27 25 26 26 27
66 74 73 73 74 75 72 58 52 49 47 45 42 39 37 37 37 38 37 36 37 34 33 29 29 30 30 28 27 28 27 28
64 74 76 74 73 72 69 59 55 52 48 44 41 42 38 39 38 38 36 37 39 40 37 34 32 33 33 32 28 29 28 29
64 71 76 78 76 68 63 62 51 50 47 39 37 40 41 39 40 41 39 41 42 45 42 33 27 32 34 35 31 29 30 30
60 65 72 72 72 66 67 62 48 46 44 39 37 41 43 40 36 33 40 41 41 44 42 37 37 36 37 36 34 31 30 31
55 57 63 71 67 72 61 58 54 49 46 42 41 42 43 40 37 34 36 39 43 47 47 44 40 37 38 38 39 35 32 33
46 51 52 56 61 66 54 63 56 53 47 43 43 43 43 40 40 40 42 36 41 38 54 48 39 40 37 41 43 39 34 35
37 42 43 45 45 43 44 49 48 46 45 45 46 45 44 42 43 42 43 40 39 42 39 37 44 41 38 39 42 41 36 36
37 37 38 39 41 43 41 41 44 46 46 46 47 45 44 45 46 46 44 46 46 41 45 45 47 44 40 37 38 41 38 37
33 34 38 37 40 42 44 44 45 47 47 48 49 48 47 47 47 48 44 46 47 45 47 48 47 42 40 38 37 40 39 39
28 32 33 32 33 37 41 41 42 45 45 46 48 50 50 50 47 46 46 46 48 48 47 48 45 43 43 41 38 39 41 40
34 32 42 38 35 36 38 36 35 37 38 42 45 48 51 50 49 48 47 49 50 47 48 47 45 45 45 45 43 41 43 40
25 16 20 34 32 30 31 31 29 31 35 37 39 42 45 47 47 45 43 47 50 49 48 48 44 43 45 48 46 43 44 43
19 28 27 28 26 27 30 32 37 37 32 33 35 36 39 43 47 47 46 44 48 49 48 47 43 40 42 45 47 47 44 43
14 23 26 32 35 32 26 28 31 35 37 39 38 39 41 42 44 43 42 42 44 45 41 38 38 37 38 40 43 51 47 43
9 12 12 15 22 26 20 23 27 31 31 36 38 39 43 46 44 43 41 41 38 37 33 37 37 39 38 40 41 47 52 48
4 3 6 10 10 13 18 20 24 27 31 33 35 37 39 39 42 42 43 42 41 40 40 43 43 37 45 48 44 44 43 39
3 3 5 6 8 12 14 16 17 19 21 25 28 30 34 38 40 42 40 41 43 43 44 45 44 39 43 41 48 39 36 47

GFSFLT1_500_spd_123.txt.gz
Wind_Speed
70 65 65 66 66 65 65 63 62 59 47 44 43 40 38 37 33 32 33 32 31 31 30 32 32 29 26 25 24 23 22 22
78 69 69 70 70 70 69 66 65 63 58 49 47 38 38 39 37 38 38 33 33 35 33 33 34 33 30 27 26 26 24 25
96 73 71 74 75 73 74 70 70 65 63 54 51 45 44 44 43 43 39 35 35 38 36 36 36 35 31 31 30 29 26 27
100 82 69 74 76 76 76 74 72 68 62 56 54 47 47 46 41 40 41 39 38 40 41 38 37 36 34 36 33 31 28 29
70 65 67 71 75 76 77 77 75 72 67 63 58 53 50 44 41 44 47 46 42 40 42 44 42 36 38 40 35 33 32 31
46 55 66 70 75 74 77 76 73 69 67 67 64 58 56 47 42 47 49 49 44 40 44 44 46 46 42 38 38 35 34 33
29 41 56 67 72 72 71 67 67 65 62 67 68 63 55 47 44 44 44 46 43 44 45 45 48 51 46 40 41 37 34 36
17 22 40 58 66 70 68 64 60 62 65 64 58 60 52 47 45 44 43 43 41 43 45 46 47 44 41 48 42 40 35 37
19 23 30 41 53 60 66 63 64 62 61 61 60 58 51 47 46 42 41 43 41 45 46 47 47 48 48 40 43 40 39 39
19 23 27 34 42 47 54 59 55 51 66 52 64 60 53 52 46 44 43 43 42 46 46 44 42 40 32 32 36 38 40 41
21 24 28 32 36 39 39 42 46 46 43 60 58 64 50 52 46 46 47 45 46 48 47 44 44 44 42 41 45 44 42 41
16 20 27 29 30 32 33 36 37 38 39 42 37 41 43 42 47 46 47 47 48 49 49 48 46 47 46 46 46 44 41 41
21 19 17 23 21 23 28 28 28 29 27 31 33 37 43 43 44 49 48 49 49 50 51 49 49 47 48 46 46 45 43 44
14 21 27 23 30 20 23 28 32 31 36 37 32 30 32 36 42 47 52 52 50 50 51 50 51 51 49 46 44 44 44 44
9 15 15 15 23 27 36 31 26 30 27 24 26 26 32 32 36 42 47 46 44 46 48 48 50 50 46 44 45 45 45 42
9 16 16 15 21 16 20 25 24 24 26 31 33 33 32 31 35 37 39 41 43 46 45 46 47 48 47 47 46 45 43 41
8 6 5 10 14 17 23 24 25 26 27 27 29 30 34 37 38 38 39 40 39 41 43 48 49 52 52 51 48 44 44 43
9 8 8 3 1 7 13 19 24 20 21 24 28 30 32 33 36 38 40 41 45 44 43 43 41 36 45 43 43 36 41 44
4 4 2 1 2 4 6 10 13 17 20 21 21 23 26 31 37 38 41 43 42 43 44 44 45 48 49 45 46 46 42 38

GFSFLT1_500_spd_126.txt.gz
Wind_Speed
70 71 73 69 67 63 62 62 61 60 57 56 54 45 43 45 41 38 38 35 33 29 29 31 32 30 29 30 29 30 27 25
83 80 79 74 75 71 67 65 63 64 63 59 55 52 44 48 42 42 40 39 35 31 31 34 36 34 33 31 29 31 30 27
97 94 87 80 80 79 75 71 69 67 66 62 60 57 48 49 48 45 43 43 36 34 37 37 38 38 35 34 30 33 33 31
87 101 102 95 83 83 81 77 74 71 68 67 65 62 59 52 52 44 40 42 41 39 40 41 41 41 38 37 36 35 35 34
52 69 84 90 81 77 84 81 77 73 71 70 71 66 57 50 51 46 46 48 48 47 45 44 44 44 44 42 40 40 41 37
32 37 52 65 67 79 81 84 80 75 74 74 70 68 56 50 51 48 48 48 50 50 48 46 46 46 50 49 46 44 44 40
26 30 32 44 66 82 86 84 78 75 74 74 77 54 54 53 52 53 53 57 56 54 49 48 48 50 53 53 48 47 46 43
13 15 20 34 51 58 68 68 71 71 71 70 71 63 53 55 56 57 60 64 58 55 52 50 46 49 53 52 48 53 48 42
9 10 12 23 35 43 52 60 63 65 69 68 68 65 61 59 57 61 63 56 62 56 53 50 46 49 50 50 49 45 43 45
2 10 13 16 22 35 37 57 68 65 64 65 65 63 61 60 63 66 64 58 58 57 53 50 46 49 48 50 39 40 37 32
2 10 13 18 22 29 36 45 46 59 60 63 60 60 62 62 63 61 62 58 52 52 51 48 48 52 51 46 37 39 40 37
9 9 13 18 21 27 35 46 49 49 50 55 57 59 57 61 62 65 60 61 62 56 46 46 46 50 48 44 38 43 40 40
14 14 9 14 12 19 25 32 41 44 43 46 57 54 53 48 47 59 53 50 53 54 48 47 48 49 48 46 45 45 45 42
8 19 17 12 14 15 20 25 31 37 41 42 39 43 41 40 36 39 43 47 50 50 47 45 48 50 49 49 49 48 47 46
12 8 3 11 14 20 20 20 27 31 21 27 27 33 26 30 33 31 35 37 35 36 39 44 49 51 53 52 51 50 48 48
12 6 1 2 9 21 33 23 26 27 16 17 19 21 20 22 25 28 32 33 35 37 42 44 48 52 51 49 48 47 45 47
11 9 8 3 5 4 12 12 13 10 13 14 18 22 25 27 28 31 32 33 38 42 42 43 46 49 50 50 48 48 49 50
9 9 11 10 9 5 5 0 11 10 12 15 17 19 21 24 27 31 34 37 40 40 43 44 46 45 48 50 53 52 54 54
5 7 8 8 8 7 5 3 1 4 10 12 14 18 19 20 21 25 30 36 39 40 44 46 47 48 49 46 47 49 44 37